[{"header": {"dx": 0.06612293990616946, "dy": 0.0552356325346848, "nx": 98, "ny": 59, "la1": 35.046912555036876, "la2": 31.78801023549047, "lo1": -121.43107172385933, "lo2": -114.95102361305473, "refTime": "2026040810", "parameterCategory": 1, "parameterNumber": 2}, "data": [8.64, 8.33, 8.33, 8.64, 8.51, 8.72, 9.11, 8.99, 8.99, 9.44, 8.66, 6.97, 4.48, 0.0, -3.11, -5.21, -6.01, -6.01, -5.59, -6.52, -7.21, -8.05, -6.64, -6.36, -6.23, -5.6, -6.26, -6.26, -6.26, 6.26, 6.71, 4.11, 4.46, 4.8, 4.98, 5.73, 6.26, 6.61, 6.58, 6.71, 6.4, 7.81, 9.83, 9.96, 11.2, 11.83, 13.87, 15.01, 15.1, 12.26, 10.04, 7.9, 2.49, 3.82, 4.4, 5.46, 7.27, 7.81, 8.37, 9.6, 9.86, 9.55, 9.33, 8.4, 7.44, 6.9, 6.99, 8.06, 8.99, 10.68, 11.8, 11.44, 10.65, 10.28, 9.7, 9.54, 10.35, 11.53, 0.0, -12.52, -9.75, -7.01, -5.81, -4.0, -2.84, -3.48, 0.0, 6.26, 5.94, 5.51, 7.03, 8.06, 8.35, 9.02, 9.88, 10.41, 9.1, 6.44, 8.38, 8.33, 8.04, 8.33, 8.18, 8.85, 9.49, 9.39, 9.11, 8.99, 8.05, 8.1, 8.22, 7.59, 3.39, -3.11, -5.59, -6.95, -6.63, -5.46, -7.81, -8.17, -8.05, -7.45, -5.75, -5.36, -5.36, -6.51, -6.71, -6.71, -6.71, -0.0, 2.6, 4.11, 4.65, 5.6, 6.88, 7.15, 7.06, 6.8, 7.63, 9.54, 10.0, 10.12, 10.86, 12.78, 14.49, 14.13, 12.84, 10.38, 10.84, 2.49, 3.82, 4.4, 3.87, 5.1, 6.69, 7.81, 8.23, 9.1, 9.4, 9.45, 8.43, 7.51, 6.32, 6.28, 7.37, 8.37, 8.99, 9.75, 11.11, 11.28, 11.11, 10.28, 8.94, 8.82, 9.97, 11.53, 0.0, -12.52, -9.75, -7.01, -5.81, -4.0, -2.84, -3.48, 0.0, 6.26, 5.94, 5.51, 7.03, 8.06, 8.35, 9.02, 9.88, 10.41, 9.1, 6.44, 8.38, 8.33, 8.04, 8.33, 8.33, 8.51, 9.12, 9.49, 9.49, 8.84, 7.12, 6.05, 7.26, 7.9, 7.87, 8.18, 2.39, -4.4, -6.95, -6.87, -5.77, -8.15, -8.22, -8.38, -8.05, -5.75, -4.74, -5.36, -6.71, -6.94, -6.8, -6.79, -6.71, -0.0, 3.47, 6.8, 6.88, 7.54, 8.43, 8.0, 7.56, 7.78, 9.7, 11.48, 12.31, 13.36, 14.22, 13.43, 9.48, 10.41, 4.4, 3.65, 5.06, 3.87, 3.3, 4.88, 6.4, 7.81, 8.23, 8.99, 9.4, 9.2, 8.18, 6.64, 6.32, 6.91, 7.96, 8.99, 9.6, 10.17, 10.8, 11.68, 11.88, 10.73, 7.94, 8.05, 9.83, 12.81, 12.87, -13.01, -10.28, -8.05, -6.32, -5.37, -3.6, -4.98, -5.09, 0.0, 4.65, 7.2, 9.27, 9.4, 8.64, 8.22, 8.22, 8.07, 5.82, 5.43, 7.93, 8.08, 8.04, 8.04, 8.33, 8.64, 9.23, 9.58, 9.22, 8.2, 6.53, 5.62, 5.77, 5.7, 6.42, 7.27, 7.27, 3.98, -5.95, -7.47, -6.99, -6.52, -7.76, -8.24, -8.48, -8.49, -7.01, -5.58, -6.36, -6.32, -5.69, -6.98, -7.28, -7.07, 7.6, 8.05, 8.49, 9.74, 9.55, 9.08, 9.36, 10.71, 10.73, 10.86, 11.13, 11.7, 11.87, 9.45, 9.39, 6.32, 5.31, 4.83, 4.2, 3.7, 3.7, 5.72, 6.95, 7.47, 8.99, 9.4, 9.4, 9.2, 7.56, 6.3, 6.32, 7.06, 8.18, 8.03, 9.0, 10.01, 11.8, 13.7, 14.37, 12.52, 6.98, 5.31, 8.99, 12.42, 15.05, -9.48, -7.89, -4.84, -6.64, -5.59, -5.16, -4.85, -5.2, 1.84, 4.74, 8.68, 10.29, 9.0, 7.9, 7.59, 6.01, 5.58, 5.6, 6.16, 7.93, 8.08, 8.04, 8.04, 8.33, 8.33, 8.9, 9.23, 8.85, 8.2, 7.02, 5.32, 5.54, 4.6, 4.6, 4.8, 5.95, 6.98, 0.0, -7.9, -8.93, -7.2, -7.63, -8.22, -8.3, -8.63, -8.33, -7.63, -5.69, -3.4, -3.15, -5.21, -5.9, -4.6, 0.0, 4.4, 5.7, 8.22, 9.8, 10.33, 10.19, 10.18, 9.8, 10.94, 11.78, 11.18, 10.28, 9.16, 8.37, 7.37, 6.98, 6.32, 4.6, 4.2, 4.66, 6.3, 7.56, 8.0, 8.55, 9.2, 9.75, 8.93, 6.3, 6.4, 6.18, 7.76, 8.18, 7.06, 8.02, 9.34, 12.03, 14.65, 15.07, 14.56, 12.27, 2.21, 4.5, 8.63, 11.91, -10.01, -4.27, -4.4, -5.2, -6.88, -5.16, -4.19, 0.0, 5.03, 7.72, 9.92, 9.69, 8.79, 8.02, 4.43, 5.21, 6.07, 6.02, 8.37, 7.93, 7.64, 7.8, 8.04, 8.04, 8.33, 8.58, 8.64, 8.96, 8.31, 6.7, 5.1, 5.95, 5.29, 5.52, 4.8, 4.23, 6.45, 5.2, -5.99, -9.34, -8.68, -9.1, -8.4, -7.76, -7.64, -7.21, -5.36, -1.75, 0.0, 2.06, 0.0, -1.47, -2.51, 0.0, 1.44, 2.44, 7.63, 9.49, 9.78, 7.21, 7.19, 9.58, 11.18, 11.58, 12.48, 12.04, 10.73, 9.34, 9.32, 8.91, 7.67, 6.32, 4.83, 5.86, 6.95, 7.56, 7.56, 8.6, 10.08, 9.13, 8.18, 6.3, 6.64, 6.73, 8.43, 8.18, 7.28, 6.52, 9.2, 11.96, 13.32, 13.56, 14.38, 15.09, 11.88, 3.52, 3.47, 4.84, -6.64, -4.46, -4.81, -4.81, -6.6, -5.06, -2.21, 0.89, 5.57, 9.06, 8.97, 7.42, 9.3, 7.33, -6.71, -6.71, 6.0, 7.12, 9.13, 7.93, 7.64, 7.64, 8.04, 8.04, 8.04, 8.33, 8.33, 8.38, 7.99, 6.7, 5.15, 6.42, 8.23, 9.67, 6.44, 5.0, 5.99, 7.24, 1.77, -7.96, -9.7, -9.7, -8.45, -7.68, -6.45, -5.4, -3.34, -3.39, -2.46, 0.0, 4.0, 6.64, 2.69, 0.76, 0.71, 1.55, 5.6, 8.54, 7.19, 4.24, 1.98, 3.96, 9.96, 13.48, 12.46, 12.24, 10.7, 9.83, 10.28, 9.83, 9.26, 6.64, 4.83, 5.86, 6.64, 7.21, 8.18, 8.8, 9.24, 8.99, 7.81, 7.81, 7.76, 6.99, 7.58, 8.99, 8.22, 7.52, 8.94, 10.73, 11.62, 12.03, 14.16, 15.07, 15.65, 12.39, 6.01, 5.81, 8.18, -4.22, -3.09, -3.45, -3.63, -2.02, 0.0, 2.53, 4.81, 6.2, 6.21, 6.7, 6.4, -6.36, -7.15, -3.2, 4.74, 7.07, 8.4, 7.69, 7.64, 7.64, 7.36, 8.04, 8.04, 8.33, 8.33, 8.08, 7.73, 5.92, 4.4, 5.29, 7.9, 11.21, 9.96, 9.97, 9.62, 9.88, 11.26, 11.12, -2.06, -5.14, -8.05, -6.8, -5.73, -4.58, -5.55, -6.45, -6.5, -3.82, 0.0, 2.19, 4.8, 3.39, 1.6, 0.71, 2.51, 6.76, 6.87, 5.2, 2.71, 3.41, 4.21, 6.42, 6.97, 7.06, 9.24, 9.68, 10.47, 8.91, 9.39, 6.14, 5.46, 6.3, 6.95, 8.0, 8.8, 8.99, 9.42, 8.91, 8.63, 8.91, 7.47, 6.08, 6.9, 9.11, 8.94, 7.94, 7.31, 8.9, 10.24, 11.02, 11.8, 13.11, 12.52, 12.44, 10.8, 12.04, 14.3, 12.02, -1.09, -0.78, -0.72, 0.0, 2.22, 3.23, 4.1, 4.43, 4.9, 2.71, -4.19, -6.26, -7.01, 0.0, 4.29, 6.7, 7.07, 7.4, 7.64, 7.64, 8.08, 8.04, 8.04, 8.04, 8.33, 8.08, 7.19, 6.16, 4.92, 3.56, 5.27, 7.28, 9.77, 10.79, 10.55, 10.99, 11.87, 12.52, 12.71, 5.8, -3.32, -5.78, -5.54, -4.4, -7.65, -8.61, -6.97, -2.28, 0.0, 0.0, 2.72, 3.82, 3.67, 2.42, 1.18, 2.28, 3.45, 3.25, 3.21, 4.43, 3.6, 3.68, 2.51, 3.68, 6.98, 8.42, 8.8, 9.75, 8.4, 4.83, 5.46, 6.64, 7.13, 7.51, 8.99, 9.55, 8.99, 8.99, 8.87, 8.05, 4.74, -0.0, 6.01, 9.32, 8.94, 8.38, 7.89, 7.97, 9.26, 11.36, 11.52, 10.75, 9.79, 8.85, 10.04, 12.81, 15.09, 16.54, 1.58, 0.0, 0.71, 1.43, 2.15, 3.16, 4.54, 1.52, -3.65, -5.75, -5.36, -5.16, -3.45, 2.12, 4.43, 6.68, 6.06, 7.4, 7.4, 7.64, 8.08, 8.33, 8.04, 8.04, 8.33, 7.64, 7.19, 6.35, 6.07, 5.14, 4.04, 3.12, 4.58, 6.4, 7.59, 7.32, 6.0, 4.81, 6.67, 7.13, 0.0, -5.29, -6.64, -6.01, -6.98, -8.91, -4.48, 0.0, 0.0, 0.0, 0.0, 0.0, 3.25, 5.59, 3.77, 2.21, 2.46, 2.6, 2.51, 2.21, 5.06, 0.0, 0.0, 0.0, 1.95, 5.2, 6.98, 8.48, 4.96, 4.83, 6.01, 6.64, 7.87, 9.6, 10.5, 10.78, 10.12, 9.79, 7.6, 8.05, -0.0, -0.0, 6.01, 9.11, 9.21, 7.94, 8.33, 8.06, 10.45, 11.71, 11.28, 10.62, 9.79, 8.41, 8.67, 11.02, 13.83, 16.09, 16.5, 1.9, 2.09, 1.84, 3.2, 4.46, 5.31, 4.46, -5.81, -5.26, -4.85, -3.63, -1.72, 0.95, 4.36, 6.01, 5.37, 7.4, 7.83, 8.08, 8.33, 8.33, 8.33, 8.33, 8.33, 7.64, 7.16, 6.76, 7.23, 7.23, 6.2, 4.52, 3.0, 4.3, 4.95, 5.17, 5.12, 2.47, 1.58, 3.59, 2.02, -5.4, -6.11, -5.45, -5.45, -6.3, -3.65, 0.0, 1.83, 0.0, -2.0, -2.34, 0.0, 5.21, 5.46, 3.72, 5.06, 1.4, 0.0, -2.12, -1.84, -4.22, -6.4, -7.45, -8.05, -8.49, -8.49, -8.94, 4.0, 6.32, 6.98, 7.64, 8.99, 10.92, 11.71, 12.03, 11.18, 8.94, 8.05, 6.7, -1.75, 1.67, 6.63, 8.34, 8.58, 7.74, 7.94, 8.91, 10.1, 11.52, 11.23, 10.89, 11.05, 9.13, 8.15, 8.18, 11.36, 13.72, 15.62, 15.15, 6.67, 7.15, 6.64, 7.21, 7.08, 6.26, 4.92, 4.47, -1.41, -1.55, -0.82, 1.63, 3.79, 5.3, 4.29, 7.83, 7.83, 8.08, 8.33, 8.33, 8.33, 8.33, 7.88, 7.64, 7.16, 7.16, 7.4, 7.88, 8.25, 7.93, 6.44, 5.29, 5.1, 5.09, 5.46, 3.69, 2.2, 2.16, 3.04, 0.0, -2.8, -2.8, -2.23, -2.99, -1.1, 0.0, 1.03, 6.26, -2.8, -2.6, 0.0, 2.02, 2.82, 7.6, -0.0, -3.4, -2.4, -1.32, -0.0, -3.4, -6.0, -6.8, -6.8, -7.2, -8.49, -5.37, 0.0, 8.05, 7.89, 7.63, 8.06, 9.92, 11.91, 12.52, 10.23, 7.76, 8.17, -0.0, -5.36, 2.06, 6.98, 8.58, 9.97, 10.18, 10.28, 9.85, 10.01, 10.1, 9.92, 9.85, 11.28, 10.5, 8.72, 8.38, 10.29, 10.79, 11.45, 12.47, 13.7, 10.41, 9.26, 8.85, 8.43, 8.87, 6.26, 5.75, 4.22, 0.88, 0.0, 2.47, 3.9, 4.16, 3.55, 7.83, 7.83, 8.08, 8.33, 8.33, 8.75, 8.33, 8.08, 7.64, 7.13, 7.13, 7.8, 8.33, 8.58, 10.3, 10.34, 9.67, 7.28, 6.07, 5.45, 5.29, 3.82, 2.69, 2.8, 3.48, 2.2, -4.92, -2.98, -4.43, -6.51, -5.2, -5.64, -2.6, -0.0, 5.81, 4.43, 0.0, -0.0, -3.4, -3.4, -7.6, -6.0, 0.0, 2.6, 0.0, -2.6, -3.22, -5.06, -5.37, -3.4, -2.12, -1.01, 0.0, 3.68, 7.15, 8.72, 8.05, 10.18, 11.55, 6.71, 7.81, 7.44, -8.0, -7.6, -0.0, 6.32, 5.59, 7.9, 8.59, 10.4, 10.58, 9.7, 8.6, 7.74, 8.91, 10.6, 10.73, 9.2, 9.04, 8.3, 6.01, 6.79, 10.15, 12.52, 12.39, 12.39, 10.41, 8.63, 9.46, 8.43, 7.11, 5.31, 3.74, 3.48, 3.72, 4.01, 3.72, 3.0, 7.83, 7.83, 7.83, 8.08, 8.75, 8.49, 8.49, 7.8, 7.36, 7.36, 7.8, 7.8, 8.04, 8.72, 10.3, 11.38, 12.16, 11.17, 9.4, 7.19, 7.28, 7.1, 7.24, 5.77, 6.2, 4.6, -8.94, -5.01, -4.11, -5.43, -5.86, -5.7, -6.36, -2.6, 2.8, 3.47, 3.47, 3.2, 7.15, 7.15, -2.26, -1.1, 0.0, 2.04, 1.18, 0.0, -2.54, -3.45, -2.46, -3.11, -3.11, 0.0, 1.48, 1.38, 2.72, 3.34, 4.83, 7.89, 10.73, 6.58, 0.0, -4.96, -8.48, -7.07, -3.97, 0.0, 6.26, 2.8, 5.46, 3.6, 1.45, -0.0, 3.39, 9.83, 9.33, 10.38, 9.6, 7.44, 7.06, 6.44, 5.06, 5.59, 8.87, 10.91, 11.39, 12.45, 11.85, 9.2, 7.21, 6.64, 6.65, 5.32, 5.31, 5.09, 4.84, 4.46, 5.01, 3.47, 7.83, 7.83, 8.22, 8.49, 8.49, 8.49, 8.2, 7.8, 7.8, 7.8, 7.53, 7.76, 8.46, 8.72, 9.97, 10.99, 12.04, 12.11, 12.22, 10.84, 10.51, 9.89, 10.38, 9.8, 8.05, 5.8, -3.68, -8.94, -5.2, -4.4, -4.66, -4.87, -6.71, -6.4, -0.0, 7.6, 8.05, 7.15, 8.49, 0.0, 0.0, 0.0, 1.09, 0.0, 0.0, 0.0, 0.0, -1.52, -2.12, -2.06, -1.16, 0.0, 2.13, 1.0, 0.0, 0.0, 0.0, 3.8, 7.63, 6.8, -7.63, -4.83, -3.91, -2.4, -2.4, -2.82, 0.0, 7.15, 5.6, 1.4, -0.0, -0.0, -0.0, 2.6, 10.28, 9.21, 7.63, 7.2, 6.18, 6.32, 5.06, 5.06, 7.33, 9.27, 8.82, 9.88, 11.37, 10.6, 8.49, 8.05, 7.6, 6.98, 5.64, 5.16, 6.02, 4.98, 4.11, 4.11, 8.22, 7.95, 8.22, 8.49, 8.49, 8.49, 8.2, 8.2, 7.8, 7.8, 7.76, 8.18, 8.46, 9.12, 9.39, 10.37, 11.36, 11.72, 11.77, 11.82, 11.49, 11.17, 11.18, 12.03, 11.07, 9.02, 7.51, 11.62, 8.8, 5.37, 6.26, -5.2, -4.46, -5.37, -0.0, -0.0, 7.6, 7.6, 8.05, 0.0, 0.0, 1.14, 0.0, -6.71, -6.71, -0.0, -0.0, 6.71, 0.0, 0.0, 0.0, 1.1, 1.32, 3.0, 0.0, 0.0, 0.0, 2.66, 6.32, 8.49, -5.37, -5.37, -2.12, -1.32, -2.12, -2.26, -1.73, 0.0, -0.0, -0.0, -2.4, -1.62, -0.0, 5.2, 4.2, 5.69, 7.6, 8.94, 7.6, 6.7, 6.7, 6.8, 6.8, 7.63, 7.63, 6.14, 8.82, 9.83, 7.6, 7.45, 8.49, 5.86, 5.09, 5.59, 7.85, 5.6, 3.84, 3.84, 8.22, 8.22, 8.49, 8.22, 8.22, 8.78, 8.2, 8.46, 8.2, 8.2, 8.46, 8.46, 8.43, 9.12, 9.77, 10.08, 10.74, 11.37, 11.39, 12.08, 11.44, 11.36, 11.53, 11.94, 13.11, 13.77, 14.47, 14.3, 13.41, 12.07, 10.28, 8.05, 4.74, -0.0, -0.0, -0.0, -3.0, 7.15, 6.26, 0.0, 0.0, 0.0, -7.15, -6.26, 7.6, -0.0, -0.0, -0.0, 5.06, 5.06, 7.15, 7.15, 7.15, -0.0, -0.0, 7.15, 5.37, 8.05, 8.49, 8.94, 8.94, 5.69, 5.06, 6.71, 0.0, 0.0, 0.0, 0.0, 7.6, -1.98, -6.01, -10.0, 12.96, 11.62, 8.05, -0.0, 2.28, 3.11, -0.0, 8.94, 8.49, 8.05, 7.63, 7.63, 8.14, 6.61, 4.92, 4.0, 4.92, 7.98, 8.8, 7.81, 5.6, 5.82, 7.76, 6.21, 3.48, 3.48, 8.22, 8.22, 8.49, 8.49, 8.22, 8.51, 8.49, 8.2, 8.46, 8.46, 8.46, 8.72, 9.12, 8.83, 9.49, 10.13, 11.06, 11.06, 11.36, 11.29, 11.23, 11.23, 11.53, 11.99, 13.29, 15.09, 16.06, 15.65, 15.2, 14.3, 12.9, 11.06, 8.94, -0.0, -0.0, -1.73, -3.0, 6.26, 0.0, 0.0, 0.0, -5.06, -4.74, -3.2, 0.0, 8.05, 8.05, 7.6, -0.0, 5.37, 3.4, 3.4, -0.0, -0.0, 7.6, 7.6, 8.05, 8.05, 8.49, 8.49, 8.49, 5.69, 5.37, -0.0, -0.0, -0.0, 0.0, 0.0, 0.0, 11.18, -8.53, -5.2, -4.8, -4.0, -8.91, -6.64, -0.0, 4.4, 5.21, 6.01, 7.15, 6.26, 7.01, 8.4, 7.2, 6.52, 6.7, 5.36, 6.02, 7.35, 8.99, 7.98, 6.16, 6.18, 6.44, 5.58, 3.84, 3.84, 8.22, 8.22, 8.59, 8.86, 8.22, 8.51, 8.78, 8.58, 8.85, 8.85, 8.46, 9.02, 9.69, 9.39, 9.12, 11.06, 10.13, 10.43, 10.65, 10.79, 12.38, 13.71, 12.27, 11.77, 12.04, 14.4, 13.59, 14.47, 13.96, 13.01, 12.3, 11.45, 10.73, -0.0, -1.63, -2.32, -3.47, -5.36, -5.06, -3.0, -3.79, -5.81, -6.26, -6.71, -7.6, 8.05, -0.0, -0.0, 8.05, -0.0, -0.0, 5.37, -0.0, -0.0, -0.0, -0.0, 8.05, 8.49, 8.49, 8.49, 8.05, 7.6, -0.0, -1.98, -1.41, -2.6, 0.0, 4.02, 6.32, 8.93, 9.2, 11.02, 11.91, 11.71, 0.0, -10.73, 9.83, 9.83, 9.11, 8.06, 6.26, 7.6, 8.05, 8.18, 7.56, 5.82, 6.14, 7.55, 8.68, 7.31, 6.82, 7.53, 6.8, 6.11, 5.06, 4.81, 4.11, 4.11, 8.22, 8.22, 8.59, 8.59, 8.59, 8.51, 8.78, 8.86, 8.85, 8.85, 8.85, 9.42, 9.69, 9.69, 10.08, 10.1, 9.82, 9.21, 9.36, 10.38, 13.97, 13.97, 13.28, 12.11, 10.97, 12.22, 12.82, 12.5, 12.65, 11.5, 9.67, 8.93, 10.28, -6.32, -5.69, -5.36, -4.65, -5.2, -6.26, -6.07, -5.81, -4.8, -3.16, -3.16, -3.48, -5.37, -0.0, -0.0, -0.0, -0.0, -0.0, -0.0, -0.0, -0.0, -0.0, 5.06, 8.49, 7.6, 8.05, 8.49, 8.05, -0.0, -5.06, -5.06, -2.6, -4.11, 5.81, 5.58, 7.06, 8.49, 9.46, 12.31, 16.86, 18.78, 14.61, 6.21, 4.15, 5.52, 7.6, 7.15, 6.71, 8.05, 8.94, 7.6, 6.01, 5.06, 4.29, 4.74, 7.9, 5.89, 4.68, 6.73, 8.18, 5.24, 4.03, 4.95, 4.65, 4.65, 8.22, 8.22, 8.59, 8.59, 8.59, 8.59, 8.87, 9.16, 9.22, 9.49, 8.85, 9.42, 9.69, 9.69, 10.08, 10.74, 9.82, 8.87, 7.6, 9.44, 12.48, 12.98, 12.98, 12.07, 12.01, 12.01, 11.47, 11.2, 10.63, 9.27, 7.59, 0.0, -6.01, -8.49, -7.21, -6.51, -5.64, -5.64, -6.26, -6.71, -6.36, -4.43, -4.43, -4.43, -3.79, -5.37, 7.6, 7.6, -0.0, -0.0, -0.0, -0.0, -0.0, -0.0, -0.0, 5.06, 7.2, 8.05, 8.49, 8.05, -0.0, -3.4, -5.06, -5.06, -5.81, -5.81, -5.81, 6.26, 5.95, 5.31, 8.22, 11.69, 15.27, 16.5, 14.53, 6.73, 5.63, 5.11, 2.02, 0.0, 6.71, 7.15, 5.69, -0.0, -0.0, 5.36, 0.0, 4.11, 5.73, 5.6, 5.15, 6.53, 7.68, 5.37, 2.72, 3.47, 3.97, 3.97, 8.22, 8.22, 8.59, 8.59, 8.59, 8.59, 8.59, 9.16, 9.5, 9.49, 9.49, 9.49, 9.42, 10.08, 10.08, 10.43, 10.75, 9.5, 9.44, 10.59, 11.66, 11.7, 11.72, 11.72, 12.04, 12.07, 11.82, 11.26, 9.17, 7.9, 7.6, -6.26, -6.71, -6.71, -7.15, -6.71, -6.26, -4.92, -5.81, -6.26, -5.94, -4.43, -3.47, -3.47, -3.22, -3.79, -8.05, -7.6, -0.0, -0.0, -0.0, -0.0, -0.0, -0.0, 5.06, 5.37, 3.4, -0.0, 8.49, 8.05, -5.06, -3.97, -3.97, -4.74, -6.26, -5.81, -5.81, -6.26, -0.0, -0.0, 5.36, 8.38, 11.53, 14.94, 2.17, 3.12, 5.94, 5.98, 3.68, 0.0, -8.05, 6.71, -0.0, -0.0, -2.12, -4.84, -5.81, 0.0, 6.32, 8.72, 9.04, 6.92, 7.61, 5.06, 2.48, 2.11, 3.22, 3.22, 8.22, 8.22, 8.59, 8.87, 8.87, 8.87, 8.86, 9.5, 9.8, 9.79, 9.49, 9.49, 10.08, 10.08, 10.13, 10.76, 10.45, 9.82, 10.1, 11.7, 12.35, 11.69, 11.4, 11.09, 11.06, 11.74, 11.77, 11.6, 9.88, 8.8, 8.05, 6.71, 5.81, 5.36, -5.36, -5.81, -5.36, -4.92, -4.92, -5.81, -5.94, -4.43, -3.76, -3.76, -2.98, -3.48, -5.06, -4.74, -4.43, -0.0, -0.0, 7.6, -0.0, -0.0, -0.0, -0.0, -0.0, -3.2, -0.0, 6.71, -5.06, -5.37, -0.0, -0.0, 6.71, -4.11, 5.36, 6.71, -6.71, 6.71, 8.05, 5.69, -0.0, -0.0, 0.0, 0.98, 4.89, 7.2, 5.49, 0.0, -4.6, -8.05, -6.71, -0.0, -6.71, -6.71, -2.12, 1.18, 5.1, 8.69, 9.92, 7.55, 6.92, 3.78, 3.35, 2.68, 3.48, 3.48, 8.22, 8.22, 8.59, 8.59, 8.87, 8.87, 8.87, 9.21, 9.8, 10.1, 10.13, 10.43, 10.43, 10.08, 10.13, 10.47, 10.76, 10.43, 10.74, 11.7, 12.65, 12.52, 11.88, 10.7, 11.1, 11.44, 11.82, 11.6, 10.48, 10.8, 9.96, 8.94, 8.05, 5.06, 0.0, 0.0, -4.43, -5.81, -5.36, -5.36, -5.51, -5.21, -4.74, -3.76, -3.49, -3.93, -4.74, -6.71, -7.15, -5.37, -5.69, -0.0, 7.6, -0.0, -0.0, -0.0, -0.0, -4.74, 7.6, 6.71, -0.0, -6.71, 6.71, 6.71, 4.92, 5.81, 8.05, 8.94, 7.6, 7.15, 0.0, 4.2, 11.18, 5.81, 0.0, 0.0, 3.32, 6.44, 7.36, 7.36, 0.0, 0.0, -6.01, 0.0, -3.4, -2.26, 0.0, 1.26, 3.7, 4.65, 7.02, 4.71, 3.43, 4.0, 3.9, 4.22, 4.84, 4.84, 8.22, 8.22, 8.59, 8.59, 8.87, 8.87, 8.87, 9.5, 9.84, 10.44, 10.44, 10.44, 10.43, 10.43, 10.13, 10.47, 10.47, 10.45, 10.45, 11.68, 12.26, 12.87, 12.45, 12.17, 11.96, 11.1, 11.2, 11.26, 11.09, 10.99, 10.61, 10.27, 9.13, 8.67, 8.06, 5.69, 0.0, 0.0, -6.71, -6.26, -6.36, -5.58, -5.06, -4.74, -4.43, -4.65, -5.64, -5.51, -5.21, -5.6, -4.11, -5.37, -5.06, -5.06, -0.0, -0.0, -0.0, -4.11, -6.71, 6.71, 5.81, 4.92, 0.0, 4.47, 5.81, 8.05, 8.94, -0.0, -0.0, 0.0, 3.4, 5.93, 10.58, 10.28, 9.83, 8.05, 5.64, 3.93, 7.15, 9.42, 9.48, 5.6, 0.0, 0.0, -1.95, -1.49, 0.0, 1.14, 1.96, 2.8, 4.43, 6.28, 5.36, 4.82, 4.24, 4.93, 5.05, 5.05, 8.22, 8.22, 8.59, 8.87, 8.87, 8.87, 8.87, 9.5, 9.8, 9.84, 10.44, 10.44, 10.74, 10.74, 10.43, 10.76, 10.47, 10.76, 10.76, 11.06, 11.63, 11.92, 12.73, 13.12, 12.91, 12.05, 11.54, 11.34, 10.38, 10.48, 10.25, 10.8, 10.0, 9.45, 9.33, 8.0, 6.01, 0.0, 0.0, -7.6, -7.6, -7.21, -6.32, -5.37, -5.95, -5.58, -6.36, -6.07, -5.6, -4.65, -3.79, -3.48, -3.0, -3.2, -3.4, -3.4, -3.0, -0.0, 6.71, 0.0, 7.15, 7.15, 4.92, 4.02, 6.71, 8.94, 8.94, -5.69, -7.15, 0.0, 3.97, 6.32, 7.4, 11.57, 12.9, 11.87, 11.3, 6.64, 4.84, 6.98, 9.17, 7.93, 4.98, -3.39, -4.43, -1.73, 0.0, 0.0, 0.0, 0.0, 0.0, 6.94, 7.28, 6.4, 5.05, 5.34, 5.86, 5.86, 8.22, 8.22, 8.87, 8.87, 8.87, 8.87, 8.87, 9.21, 9.5, 10.13, 10.13, 10.75, 11.06, 10.75, 11.06, 11.06, 10.45, 10.76, 10.76, 11.06, 11.63, 11.92, 12.45, 12.73, 13.12, 12.54, 11.44, 10.58, 10.03, 9.69, 9.76, 9.4, 9.43, 9.81, 9.6, 9.4, 8.54, 7.68, 5.63, 2.83, 0.0, -8.49, -7.6, -6.7, -7.21, -7.6, -7.6, -7.15, -6.51, -5.6, -4.65, -3.48, -2.79, -2.79, -4.43, -3.72, -3.2, -0.0, 6.26, 0.0, 0.0, 7.15, 7.6, 5.81, 0.0, 0.0, 8.49, -7.6, -5.06, 0.0, 1.73, 4.75, 6.18, 8.37, 9.32, 10.21, 11.64, 10.58, 4.43, 3.72, 5.95, 8.31, 6.4, -4.8, -6.79, -3.0, -1.4, -2.66, -3.97, -5.06, -3.0, 1.52, 6.9, 6.63, 5.15, 4.73, 5.2, 5.2, 8.51, 8.51, 8.87, 8.87, 8.87, 8.87, 9.21, 9.21, 9.5, 9.82, 10.13, 10.45, 10.45, 10.75, 10.75, 10.43, 10.43, 10.45, 10.45, 11.36, 11.63, 11.63, 11.92, 12.45, 13.02, 12.54, 11.72, 10.82, 10.24, 10.01, 9.76, 9.4, 9.04, 9.05, 9.05, 8.82, 8.72, 8.0, 6.64, 5.63, 4.0, 8.94, -6.01, -7.6, -8.05, -8.05, -7.6, -7.6, -6.79, -5.58, -4.11, -3.22, -2.53, -2.2, -2.73, -3.22, -3.0, -0.0, -0.0, 6.71, 0.0, 0.0, 7.15, 7.15, 6.01, 0.0, 8.49, 7.6, -5.37, 0.0, 2.4, 5.03, 5.44, 5.44, 6.8, 7.52, 10.28, 6.95, 2.8, 3.22, 4.46, 8.05, 7.38, 0.0, -8.94, -5.37, -3.47, -5.59, -5.95, -3.97, -1.73, 0.0, 5.06, 5.69, 5.15, 4.74, 5.01, 5.01, 8.51, 8.51, 8.87, 8.87, 8.87, 8.87, 9.21, 9.21, 9.82, 9.82, 10.13, 10.75, 10.76, 11.06, 11.36, 11.03, 10.72, 10.75, 10.75, 11.03, 11.63, 11.92, 11.92, 11.92, 12.37, 11.8, 11.29, 10.47, 10.18, 10.28, 10.01, 10.04, 9.67, 9.3, 8.68, 8.67, 8.42, 7.87, 6.95, 6.95, 5.63, 6.32, 8.49, -7.6, -7.15, -7.6, -8.49, -8.05, -7.6, -6.36, -4.11, -2.4, -1.83, -1.83, -2.2, -2.0, -2.8, -0.0, -0.0, 6.71, -4.74, -7.6, -6.71, 8.05, 0.0, -0.0, -0.0, -0.0, -7.6, -5.37, 2.54, 6.9, 7.07, 4.94, 5.21, 5.54, 4.6, 7.15, 0.0, 3.49, 4.54, 8.07, 8.18, 6.2, -6.64, -5.09, -3.79, -4.43, -1.52, 0.0, 0.0, 0.0, 3.72, 5.37, 4.75, 5.15, 5.43, 5.43, 8.51, 8.51, 8.87, 8.87, 8.87, 9.21, 9.21, 9.5, 9.82, 9.82, 9.82, 10.44, 10.75, 11.06, 11.38, 11.36, 11.03, 11.03, 11.03, 11.03, 11.36, 11.92, 11.92, 11.92, 11.92, 11.52, 10.99, 10.47, 10.18, 9.9, 10.28, 10.01, 10.04, 9.67, 9.3, 8.68, 8.32, 7.68, 7.27, 6.95, 6.14, 5.21, 0.0, -5.69, -6.79, -7.6, -8.49, -5.06, -5.36, -3.48, -2.2, -1.55, -1.19, -0.96, -1.83, -1.55, -1.41, -1.41, -1.98, -5.94, -6.71, -7.15, -7.15, -8.05, -0.0, -0.0, -0.0, -0.0, -4.43, -5.37, 0.0, 5.37, 8.24, 9.96, 8.85, 8.66, 6.7, 3.8, 3.48, 4.11, 3.79, 6.53, 7.43, 6.4, -11.6, -6.36, -5.09, -3.79, -1.55, -1.32, -1.84, 0.0, 2.69, 4.22, 5.1, 5.31, 6.18, 6.18, 8.23, 8.23, 8.87, 8.87, 8.87, 9.21, 9.21, 9.5, 9.82, 10.13, 10.13, 9.82, 10.75, 10.75, 11.06, 11.63, 11.63, 11.36, 11.36, 11.36, 11.63, 11.63, 11.92, 11.92, 11.92, 11.58, 10.69, 10.13, 10.18, 10.55, 10.91, 10.91, 10.53, 9.92, 9.56, 8.94, 8.3, 7.64, 7.27, 7.27, 6.3, 6.95, 5.21, 0.0, -5.37, -5.69, -3.8, 0.0, 4.02, -0.0, -0.0, -0.0, -0.0, -1.19, -0.96, -0.96, -1.83, -2.4, -3.15, -4.65, -6.51, -7.6, -8.05, -8.05, -0.0, -0.0, -4.74, 7.6, 7.15, 5.06, 1.98, 1.98, 6.4, 10.73, 13.28, 13.13, 11.52, 8.24, 6.64, 5.69, 5.9, 4.6, 5.92, 6.0, -9.48, -10.79, -9.89, -6.26, -5.64, -4.0, -3.93, -2.73, 0.0, 6.32, 5.36, 4.6, 5.69, 5.69, 8.23, 8.23, 8.59, 8.87, 8.87, 9.21, 9.21, 9.82, 9.82, 10.13, 10.13, 10.13, 10.13, 10.75, 11.03, 11.36, 11.63, 11.67, 11.67, 11.67, 11.96, 11.96, 11.63, 11.92, 11.92, 11.33, 10.42, 9.15, 8.85, 9.84, 10.81, 10.81, 10.45, 10.04, 9.46, 8.86, 8.59, 7.97, 7.27, 7.27, 6.95, 6.3, 6.64, 6.32, 0.0, 0.0, 0.0, 0.0, 6.26, -0.0, 2.4, -0.0, -0.0, -0.0, -0.0, -0.0, -0.96, -1.99, -3.35, -4.84, -6.07, -7.6, -0.0, -0.0, -0.0, -0.0, -0.0, 0.0, 4.22, 6.08, 3.45, 0.0, 4.0, 9.7, 13.86, 15.05, 12.79, 9.67, 6.98, 8.18, 8.05, 8.18, 7.27, 8.22, 7.19, -13.41, -12.42, -11.12, -6.26, -5.81, -5.36, -5.2, -2.2, 3.48, 6.01, 6.32, 5.69, 5.69, 8.23, 8.23, 8.59, 8.87, 8.87, 9.21, 9.5, 10.12, 9.82, 10.43, 10.43, 10.43, 10.13, 10.13, 11.03, 11.03, 11.36, 11.36, 11.63, 11.96, 12.22, 12.22, 12.22, 11.92, 11.58, 10.99, 10.42, 9.15, 8.82, 9.64, 9.16, 9.42, 9.42, 9.73, 9.37, 9.09, 8.59, 7.94, 7.97, 7.68, 7.27, 6.95, 6.95, 6.64, 6.64, 4.2, 6.95, 8.94, 8.05, 5.06, 3.2, 3.0, 1.98, 1.84, -0.0, -0.0, -0.0, -1.08, -2.2, -3.48, -5.2, -0.0, -0.0, -0.0, -1.84, -1.49, -1.73, -0.0, 5.69, 7.07, 7.07, 0.0, 0.0, 6.01, 12.08, 14.99, 9.46, 6.7, 8.05, 9.39, 10.28, 10.73, 11.18, 11.46, 11.87, 11.12, -5.8, -11.91, -8.94, -7.01, -7.01, -5.36, -4.4, 0.0, 6.36, 7.6, 6.44, 6.44, 8.23, 8.23, 8.23, 8.59, 8.87, 9.21, 9.5, 10.12, 9.82, 10.43, 10.43, 10.75, 10.43, 10.43, 10.72, 11.33, 11.33, 11.33, 11.63, 11.96, 12.22, 12.56, 12.22, 12.22, 11.58, 11.28, 10.12, 9.13, 9.42, 9.48, 9.17, 8.52, 8.78, 9.08, 9.08, 9.01, 8.86, 7.94, 7.97, 7.27, 7.68, 6.95, 7.47, 6.95, 7.51, 8.18, 8.8, 9.39, 8.94, 7.6, 6.8, 4.74, 4.74, 1.84, 1.7, 1.55, 1.41, -0.0, -0.0, -1.27, -5.06, -0.0, -0.0, -3.4, -3.2, -3.2, -3.2, -4.74, -8.05, 0.0, 0.0, 0.0, 2.28, 5.46, 11.21, 13.99, 12.07, 10.6, 10.0, 10.46, 10.96, 11.18, 11.62, 11.53, 11.53, 11.87, 12.25, 10.73, 0.0, -8.94, -5.51, -5.94, -4.92, 0.0, 4.11, 7.89, 7.89, 7.89, 8.23, 8.23, 8.23, 8.59, 8.87, 9.21, 9.21, 9.82, 10.13, 10.43, 10.75, 10.75, 10.75, 10.43, 10.43, 10.72, 10.99, 11.33, 11.58, 11.92, 11.96, 12.22, 12.22, 12.22, 11.92, 11.63, 10.43, 9.46, 9.46, 9.48, 9.5, 8.84, 9.12, 9.08, 9.08, 9.01, 9.09, 8.24, 7.94, 7.64, 7.27, 7.35, 7.4, 7.47, 7.56, 8.43, 8.8, 8.91, 9.39, 8.94, 8.06, 6.7, 5.37, 5.06, 1.98, 1.84, 1.55, 1.41, 1.08, 1.08, -0.0, -3.4, -3.4, -3.4, -3.4, -0.0, -2.12, -5.06, -7.6, -7.21, -6.32, 0.0, 6.64, 8.82, 11.53, 12.72, 12.91, 11.38, 11.77, 12.3, 12.03, 12.02, 11.78, 12.14, 12.14, 13.55, 14.1, 12.46, 10.18, 6.51, 6.26, -0.0, 5.36, 0.0, 3.48, 6.32, 8.33, 8.33, 8.23, 8.23, 8.23, 8.59, 8.87, 9.21, 9.21, 9.82, 10.13, 10.43, 10.75, 10.75, 10.75, 10.43, 10.43, 10.43, 10.72, 11.33, 11.58, 11.92, 11.63, 11.96, 12.22, 12.22, 11.92, 11.63, 10.74, 9.46, 8.78, 9.17, 9.5, 9.46, 9.12, 9.08, 9.08, 8.73, 8.79, 8.5, 8.24, 7.64, 7.27, 7.35, 6.64, 7.87, 8.34, 8.93, 9.75, 9.64, 9.39, 9.39, 8.67, 7.07, 6.7, 5.37, 3.97, 3.72, 3.22, 2.98, 2.48, 2.0, 1.19, -1.19, -3.6, -3.97, -0.0, -0.0, -0.0, -2.54, -7.63, -7.6, -7.6, -3.4, 9.33, 9.77, 12.37, 11.88, 11.57, 12.39, 14.47, 15.62, 13.86, 11.4, 10.32, 9.6, 10.18, 11.06, 11.06, 9.32, 5.32, 6.2, 6.26, 6.26, 5.36, 2.84, 2.53, 4.11, 7.6, 7.6, 7.59, 7.59, 8.23, 8.59, 8.87, 9.21, 9.5, 9.82, 10.13, 10.43, 10.75, 10.75, 10.75, 10.75, 10.43, 10.43, 10.72, 10.99, 11.33, 11.92, 11.92, 11.63, 11.96, 12.22, 11.92, 11.63, 10.74, 10.12, 8.78, 8.82, 9.17, 9.46, 9.12, 9.66, 9.08, 9.08, 8.79, 8.79, 8.5, 8.3, 7.64, 7.35, 6.64, 7.67, 7.58, 8.8, 9.45, 9.75, 9.7, 9.39, 8.94, 8.24, 6.7, 6.32, 5.37, 5.06, 4.43, 4.11, 3.16, 2.95, 2.2, 0.96, -3.4, -2.26, -0.0, -0.0, -1.73, -3.4, -4.46, -6.8, -7.6, -7.6, 6.64, 10.18, 12.48, 12.47, 10.27, 11.76, 15.12, 15.71, 13.15, 9.6, 7.74, 7.47, 7.47, 7.94, 7.52, 4.87, 4.92, 5.81, 6.26, 6.26, 4.92, 4.0, 2.53, 3.16, 5.06, 5.69, 7.59, 7.59, 7.96, 8.23, 8.87, 9.21, 9.5, 9.82, 10.13, 10.43, 10.75, 10.75, 10.75, 10.75, 10.75, 10.43, 10.43, 10.72, 11.33, 11.92, 11.92, 11.92, 11.63, 11.96, 11.92, 11.28, 10.42, 9.78, 9.46, 8.49, 8.85, 9.17, 9.12, 9.3, 9.3, 9.08, 8.49, 8.79, 8.86, 8.82, 7.96, 7.68, 6.68, 6.79, 7.76, 9.85, 10.21, 10.05, 9.75, 9.83, 8.94, 8.24, 7.2, 6.32, 5.37, 5.06, 4.74, 4.11, 3.16, 2.95, 2.95, 1.83, -0.0, -0.0, -0.0, -0.0, -2.54, -1.73, -2.4, -3.4, -5.06, -5.69, 8.94, 9.74, 13.28, 12.92, 9.89, 9.36, 12.73, 14.42, 11.77, 8.79, 8.24, 6.79, 4.82, 4.38, 5.36, 5.36, 5.81, 5.81, 5.81, 5.81, 5.36, 5.51, 4.09, 3.16, 4.11, 5.06, 7.59, 7.59, 7.59, 7.96, 8.59, 8.87, 9.21, 9.82, 10.13, 10.43, 10.75, 10.75, 10.75, 10.75, 10.75, 10.43, 10.43, 10.43, 11.33, 11.33, 11.92, 11.92, 11.92, 11.63, 11.63, 11.58, 10.69, 9.8, 9.46, 8.85, 8.85, 8.53, 9.12, 9.3, 9.3, 8.73, 8.49, 8.79, 8.86, 8.82, 8.58, 8.32, 7.02, 6.39, 7.67, 9.96, 10.8, 10.0, 9.2, 9.21, 8.94, 8.24, 6.7, 6.32, 6.32, 5.06, 5.36, 4.29, 3.93, 3.93, 3.48, 2.95, 1.99, -0.0, -0.0, -0.0, -2.26, -3.2, -3.4, -0.0, -0.0, -7.6, 0.0, 9.54, 10.62, 10.8, 9.55, 8.87, 9.89, 11.16, 10.04, 9.04, 7.74, 6.64, 5.81, 5.81, 6.71, 6.71, 6.26, 6.26, 5.81, 5.81, 5.73, 6.4, 5.01, 4.29, 3.79, 4.11, 7.87, 7.87, 7.87, 7.96, 8.23, 8.59, 9.21, 9.5, 9.82, 10.13, 10.43, 10.43, 10.75, 10.75, 10.43, 10.13, 10.13, 10.43, 10.72, 11.33, 11.33, 11.33, 11.58, 11.92, 11.92, 11.92, 10.99, 10.09, 9.17, 8.85, 8.85, 8.53, 8.78, 9.3, 9.3, 8.94, 9.01, 8.79, 8.53, 8.5, 8.82, 8.55, 8.3, 7.69, 7.76, 9.67, 9.77, 8.15, 7.28, 8.24, 8.49, 8.06, 7.63, 6.32, 6.32, 5.06, 5.36, 4.65, 4.29, 3.93, 3.93, 2.95, 3.2, -0.0, -0.0, -0.0, -0.0, -0.0, -0.0, -0.0, -5.69, -8.05, 0.0, 0.0, 8.94, 8.05, 10.58, 10.47, 9.39, 8.0, 4.43, 5.81, 4.85, 7.15, 7.6, 7.6, 7.15, 7.15, 7.6, 7.6, 6.71, 6.26, 6.2, 7.47, 6.44, 5.06, 4.02, 4.02, 7.22, 7.22, 7.87, 7.87, 8.24, 8.59, 8.87, 9.21, 9.5, 9.82, 10.13, 10.43, 10.43, 10.43, 10.43, 10.13, 10.13, 10.13, 10.43, 10.99, 11.33, 11.33, 11.33, 11.58, 11.58, 11.58, 10.99, 10.42, 9.48, 8.85, 8.85, 8.53, 9.12, 9.02, 9.3, 9.3, 9.01, 8.44, 8.44, 8.5, 8.5, 8.45, 8.55, 8.88, 9.43, 10.6, 8.99, 7.4, 7.21, 7.15, 7.6, 8.05, 7.63, 7.63, 6.8, 6.08, 5.36, 5.01, 4.65, 4.29, 4.29, 3.48, 2.2, -0.0, -0.0, -0.0, -0.0, -0.0, -0.0, -0.0, -8.05, -5.69, -4.2, 0.0, 4.2, 8.24, 8.94, 10.68, 9.16, 8.41, 7.6, 7.01, 8.41, 10.28, 10.28, 9.29, 7.54, 7.1, 7.1, 7.98, 7.98, 7.1, 6.94, 7.63, 5.1, 5.1, 5.1, 5.1, 7.22, 7.22, 7.87, 7.87, 8.24, 8.24, 8.59, 8.87, 9.21, 9.82, 9.82, 10.13, 10.13, 10.13, 10.13, 10.13, 10.13, 10.13, 10.43, 10.72, 10.99, 10.99, 11.63, 11.87, 11.87, 11.58, 11.28, 10.42, 9.48, 9.17, 8.85, 8.82, 9.12, 9.02, 9.3, 9.3, 9.3, 8.73, 8.44, 8.44, 8.15, 8.45, 8.76, 8.88, 9.6, 10.32, 9.66, 8.48, 8.24, 7.97, 7.15, 7.15, 7.6, 7.37, 6.8, 6.8, 5.72, 5.36, 5.01, 4.65, 4.29, 4.29, 3.48, 5.37, -0.0, -0.0, -0.0, -0.0, -0.0, -0.0, -8.05, -6.01, -2.83, 0.0, 3.49, 5.59, 8.22, 9.83, 11.05, 11.14, 10.94, 11.16, 13.56, 13.67, 12.52, 9.86, 7.81, 6.16, 5.86, 6.7, 6.94, 6.79, 6.7, 7.67, 5.36, 4.0, 4.0, 4.0, 7.6, 7.6, 7.59, 7.96, 8.53, 8.53, 9.17, 9.17, 9.8, 9.5, 9.82, 10.13, 10.13, 10.13, 10.13, 10.13, 10.13, 10.13, 10.43, 10.4, 10.4, 10.99, 11.28, 11.87, 11.87, 11.87, 11.28, 10.69, 9.48, 9.46, 9.17, 9.15, 9.08, 9.37, 9.86, 9.5, 9.3, 8.73, 9.01, 8.44, 8.15, 8.15, 8.45, 8.55, 8.88, 9.49, 9.33, 9.06, 8.77, 8.44, 7.98, 7.6, 7.15, 7.15, 7.45, 7.06, 6.64, 5.75, 5.37, 5.37, 4.65, 4.29, 4.29, 3.79, -0.0, -0.0, -0.0, -0.0, -0.0, -5.37, -8.94, -6.01, 0.0, 2.28, 5.06, 5.86, 8.4, 9.77, 11.14, 11.77, 12.56, 14.49, 16.41, 15.79, 13.77, 10.6, 6.64, 6.52, 6.55, 5.82, 7.37, 5.6, 6.21, 6.63, 3.8, -2.06, -2.06, -2.06, 7.6, 7.6, 7.59, 7.96, 7.96, 8.59, 8.87, 9.17, 9.8, 9.8, 9.5, 9.82, 9.84, 9.84, 10.13, 10.13, 10.13, 10.43, 10.43, 10.4, 10.4, 11.28, 11.28, 11.52, 11.87, 11.87, 11.28, 10.69, 10.06, 9.46, 9.17, 9.42, 9.42, 9.37, 9.59, 9.86, 9.3, 9.3, 9.01, 8.44, 8.37, 8.15, 8.45, 8.55, 8.88, 9.2, 9.08, 8.82, 8.56, 8.56, 8.29, 7.98, 7.6, 7.6, 7.15, 7.06, 6.79, 6.79, 6.36, 5.81, 4.98, 4.65, 4.29, 3.79, 3.22, -0.0, -0.0, -0.0, -5.06, -6.8, -8.05, -8.49, 0.0, 0.0, 2.97, 6.64, 8.4, 10.18, 10.04, 8.07, 9.92, 14.78, 17.39, 16.02, 12.79, 11.06, 8.82, 6.58, 6.4, 6.64, 5.72, 4.09, 4.89, 5.06, 0.0, -4.22, -4.22, -4.22, 7.6, 7.6, 7.87, 7.96, 8.23, 8.59, 8.59, 8.87, 9.5, 9.8, 9.8, 9.5, 9.84, 9.84, 9.84, 9.84, 10.13, 10.43, 10.43, 10.4, 10.69, 10.69, 11.28, 11.28, 11.87, 11.87, 11.28, 10.69, 10.39, 9.78, 9.46, 9.76, 9.76, 9.94, 9.59, 9.86, 9.86, 9.58, 9.01, 8.44, 8.37, 8.15, 8.45, 8.18, 8.49, 8.8, 8.8, 8.55, 8.4, 8.56, 8.06, 7.85, 7.98, 8.05, 7.15, 7.08, 7.08, 7.08, 6.45, 6.36, 5.94, 5.4, 4.8, 4.8, 3.79, 6.01, 5.37, 7.6, 8.05, -7.6, -8.49, -8.49, -8.49, -8.0, -9.39, 9.39, 9.39, 9.7, 8.18, 4.88, 6.44, 13.38, 17.36, 16.18, 14.2, 11.8, 10.73, 6.95, 4.96, 3.22, 4.09, 4.66, 4.46, 4.43, 0.0, 0.0, 0.0, 0.0, 7.6, 7.6, 7.87, 8.24, 7.96, 8.23, 8.87, 9.21, 9.21, 9.21, 9.8, 9.8, 9.82, 9.84, 9.84, 9.84, 10.13, 10.13, 10.72, 10.4, 10.4, 10.69, 10.94, 11.28, 11.52, 11.87, 11.28, 11.23, 10.65, 10.06, 10.09, 9.76, 9.76, 9.94, 9.94, 9.86, 9.86, 9.58, 9.01, 8.65, 8.37, 8.15, 8.09, 8.18, 8.18, 8.49, 8.4, 8.55, 8.4, 8.3, 8.14, 8.06, 7.85, 7.98, 7.6, 7.15, 6.71, 6.65, 6.64, 6.2, 6.17, 5.73, 5.26, 4.4, 4.09, 5.69, 5.37, 5.37, 8.05, -7.6, -8.49, -8.49, -8.94, -8.94, -9.39, 9.39, 6.64, 6.64, 4.2, 5.21, 6.95, 10.2, 14.36, 15.1, 14.51, 12.39, 9.21, 6.14, 4.43, 5.09, 5.81, 5.36, 4.92, 5.6, 2.12, 0.0, 0.0, 0.0, 7.6, 7.6, 7.87, 8.24, 8.24, 8.23, 8.59, 8.87, 9.21, 9.5, 9.82, 9.5, 9.5, 9.84, 9.84, 9.84, 10.13, 10.13, 10.72, 10.4, 10.4, 10.4, 10.94, 10.99, 11.28, 11.52, 11.28, 11.23, 10.65, 10.06, 10.35, 10.35, 10.01, 9.94, 9.94, 9.86, 10.13, 9.58, 9.86, 9.3, 8.73, 8.37, 8.45, 8.09, 8.18, 8.49, 8.4, 8.67, 8.55, 8.3, 8.14, 8.06, 8.29, 8.0, 7.6, 7.6, 7.15, 6.71, 6.26, 6.2, 6.2, 5.73, 5.29, 4.82, 4.66, 4.74, 4.74, 3.2, 5.37, 8.05, 8.49, -8.94, -8.94, -8.94, -8.94, 8.94, -0.0, -0.0, 3.32, 5.59, 7.44, 7.21, 8.69, 11.42, 13.33, 12.62, 5.26, 0.0, 0.0, 5.81, 5.81, 5.81, 4.92, 4.11, 0.0, -3.72, -3.72, -3.72, 7.6, 7.6, 7.87, 8.24, 8.24, 8.24, 8.59, 8.59, 9.21, 9.5, 9.82, 9.82, 9.82, 9.82, 10.13, 10.13, 10.43, 10.43, 10.4, 10.4, 10.4, 10.4, 10.72, 10.99, 10.99, 11.28, 11.28, 10.69, 10.65, 10.39, 10.35, 10.35, 10.01, 9.94, 9.94, 9.86, 9.95, 9.58, 9.86, 9.3, 8.93, 8.65, 8.45, 8.09, 8.38, 8.11, 8.4, 8.4, 8.55, 8.4, 8.3, 8.14, 8.29, 8.0, 8.05, 7.6, 7.15, 7.15, 6.71, 6.26, 5.81, 5.81, 5.36, 5.36, 4.92, 6.26, 6.26, -0.0, -0.0, -0.0, 8.05, 8.49, 8.94, -8.94, -8.94, -8.49, -6.01, -0.0, -0.0, 6.01, 6.63, 6.01, 6.32, 8.99, 13.67, 11.11, 5.81, 0.0, -2.68, 0.0, 5.6, 6.71, 5.36, -2.4, -3.22, -4.65, -4.65, -4.65, 7.6, 7.89, 7.6, 8.24, 8.24, 8.24, 8.24, 8.87, 8.59, 9.21, 9.5, 9.5, 9.5, 9.8, 9.82, 10.13, 10.43, 10.43, 10.4, 10.4, 10.4, 10.4, 10.72, 10.99, 11.28, 11.28, 11.28, 10.69, 10.65, 10.39, 10.35, 10.35, 10.01, 10.3, 10.23, 9.86, 9.95, 9.86, 9.48, 9.58, 9.2, 9.2, 8.65, 8.38, 8.38, 8.27, 8.11, 8.4, 8.67, 8.14, 8.4, 8.14, 8.14, 8.44, 8.0, 8.05, 7.6, 7.15, 6.71, 6.71, 5.81, 5.81, 5.36, 5.36, 5.36, 5.36, 6.71, -0.0, -0.0, -0.0, 7.15, 8.05, 6.32, -0.0, -8.94, -8.94, -8.49, -6.01, -0.0, 3.8, 6.01, 6.01, 6.28, 8.6, 15.65, 12.96, 7.52, 2.53, -1.66, -2.3, 0.0, 6.8, 0.0, -4.09, -3.93, -4.6, -4.6, -4.6, 7.89, 7.89, 7.89, 7.87, 8.24, 8.24, 8.24, 8.87, 8.59, 9.21, 9.21, 9.19, 9.19, 9.5, 9.8, 9.82, 10.43, 10.43, 10.4, 10.4, 10.4, 10.4, 10.99, 11.28, 11.28, 11.28, 10.69, 10.69, 10.39, 10.06, 10.35, 10.01, 10.3, 10.3, 10.23, 9.86, 9.95, 9.86, 9.48, 9.58, 9.2, 9.47, 8.93, 8.54, 8.54, 8.27, 8.27, 8.52, 8.67, 8.67, 8.4, 8.63, 8.14, 8.29, 8.0, 8.0, 7.6, 7.6, 7.15, 6.71, 6.26, 5.81, 5.81, 5.81, 5.81, 5.81, 6.71, 6.26, 6.71, 6.71, -7.15, 0.0, 5.69, 8.49, -8.94, -8.94, -8.49, -6.01, -0.0, -0.0, 7.6, 7.07, 7.47, 14.75, 16.54, 14.3, 10.18, 2.2, -0.87, -2.3, -1.83, 0.0, -3.0, -3.93, -3.49, -3.84, -3.84, -3.84, 7.89, 7.89, 7.89, 7.89, 8.24, 8.24, 8.24, 8.87, 8.59, 8.87, 9.19, 9.19, 9.19, 9.5, 9.5, 9.8, 9.82, 10.4, 10.4, 10.4, 10.4, 10.4, 11.28, 11.28, 11.28, 10.94, 10.69, 10.69, 10.09, 10.06, 10.06, 10.01, 10.01, 9.94, 10.23, 9.86, 10.13, 9.86, 9.48, 9.74, 9.2, 9.47, 9.07, 8.54, 8.8, 8.4, 8.27, 8.12, 8.52, 8.67, 8.48, 8.4, 8.33, 8.33, 8.45, 8.01, 7.55, 7.55, 7.15, 6.71, 6.71, 6.26, 6.26, 6.26, 6.26, 6.14, 5.51, 5.81, 7.15, 7.15, 7.6, 0.0, 0.0, 0.0, 7.15, -8.49, -8.49, 8.05, 8.49, 8.05, 8.05, 7.2, 8.41, 13.67, 15.43, 13.75, 10.73, -1.73, -1.8, -3.22, -2.68, -1.73, -1.84, -3.22, -3.48, -3.79, -3.79, -3.79, 7.89, 7.89, 7.89, 7.89, 8.24, 8.24, 8.24, 8.58, 8.87, 8.58, 8.87, 9.48, 9.5, 9.5, 9.8, 10.12, 10.12, 10.12, 10.4, 10.4, 10.4, 10.4, 10.69, 10.94, 10.94, 10.94, 10.69, 10.36, 10.09, 10.06, 10.06, 9.72, 10.01, 9.94, 9.94, 9.86, 10.13, 10.02, 9.63, 9.74, 9.35, 9.07, 9.07, 8.91, 8.8, 8.4, 8.4, 8.63, 8.12, 8.76, 8.25, 8.48, 8.19, 8.33, 8.33, 8.01, 8.01, 7.56, 7.55, 7.11, 6.66, 6.65, 6.2, 6.2, 6.61, 6.58, 6.51, 5.81, 7.15, 7.15, 8.05, 8.05, 0.0, 0.0, -5.37, -5.37, -3.6, 0.0, 0.0, 0.0, 0.0, 5.69, 6.61, 10.75, 12.46, 6.2, -8.49, -4.29, -3.22, -3.45, -4.11, -1.58, 0.0, -2.8, -2.99, -2.53, -2.53, -2.53, 7.89, 7.89, 7.89, 7.89, 8.24, 7.96, 8.24, 8.58, 8.58, 8.87, 9.17, 9.19, 9.5, 9.8, 10.12, 10.12, 10.12, 10.12, 10.12, 10.4, 10.69, 10.69, 10.69, 10.94, 10.94, 10.94, 10.69, 10.36, 10.09, 10.06, 9.46, 9.46, 9.66, 9.66, 9.94, 9.86, 9.86, 9.76, 9.63, 9.63, 9.35, 8.96, 8.68, 8.68, 8.91, 8.51, 8.4, 8.63, 8.63, 8.76, 8.76, 8.48, 8.63, 8.19, 8.33, 7.89, 7.89, 7.56, 7.55, 7.11, 7.11, 7.1, 6.65, 6.64, 6.61, 6.61, 6.58, 6.71, 6.26, 7.6, 7.6, 8.05, 0.0, 0.0, -6.01, -8.49, 0.0, 0.0, 0.0, 0.0, 0.0, 5.37, 5.81, 7.89, 9.6, 4.4, -6.4, -4.34, -2.91, -3.35, -3.79, -3.68, 0.0, 0.0, -1.05, -2.16, -2.16, -2.16, 8.2, 8.2, 7.89, 7.89, 8.54, 8.54, 8.54, 8.54, 9.17, 9.17, 9.48, 9.5, 9.5, 9.8, 10.12, 9.8, 9.8, 9.8, 10.09, 10.36, 10.69, 10.69, 10.69, 10.94, 10.94, 10.94, 10.69, 10.36, 10.06, 10.06, 9.46, 9.13, 9.42, 9.42, 9.37, 9.37, 9.86, 9.5, 9.76, 9.63, 9.63, 9.35, 8.96, 9.2, 8.68, 8.91, 8.51, 8.4, 8.63, 8.63, 8.34, 8.48, 8.4, 8.19, 8.19, 8.14, 7.89, 7.89, 7.45, 7.42, 6.98, 6.94, 6.94, 6.88, 6.79, 6.79, 7.01, 6.94, 6.71, 7.15, 7.6, 0.0, 0.0, -5.37, -6.8, 8.05, 0.0, 0.0, 0.0, 0.0, 0.0, 1.84, 5.37, 6.71, 9.39, 9.39, 7.15, -4.66, -4.77, -4.19, -4.46, -4.87, -1.18, 1.4, 0.0, -1.49, -1.49, -1.49, 8.2, 8.2, 7.89, 7.89, 8.17, 8.54, 8.54, 8.83, 9.17, 9.17, 9.48, 9.5, 9.5, 9.8, 9.8, 9.8, 9.8, 10.09, 10.09, 10.36, 10.36, 10.36, 10.36, 11.23, 10.94, 10.94, 10.36, 10.65, 10.06, 9.72, 9.46, 9.13, 9.42, 9.08, 9.37, 9.02, 9.3, 9.3, 9.58, 9.21, 9.48, 9.1, 9.35, 8.96, 9.2, 8.68, 8.68, 8.51, 8.4, 8.63, 8.22, 8.25, 8.48, 8.4, 7.98, 8.14, 7.71, 7.71, 7.89, 7.42, 6.98, 6.94, 6.94, 6.88, 6.79, 6.79, 6.64, 6.94, 6.4, 0.0, 0.0, 0.0, 0.0, -5.06, -3.4, 0.0, 0.0, 0.0, 0.0, -1.67, 0.0, 0.0, 2.06, 5.95, 8.77, 10.08, 6.95, -6.71, -6.26, -5.01, -4.11, -4.16, -0.94, 1.14, 1.4, 0.0, 0.0, 0.0, 8.2, 8.2, 8.2, 8.2, 8.49, 8.49, 8.85, 9.15, 9.17, 9.17, 9.48, 9.19, 9.5, 9.5, 9.8, 9.8, 10.09, 10.09, 10.09, 10.36, 10.36, 10.36, 10.65, 10.65, 10.88, 10.65, 10.65, 10.65, 10.06, 9.72, 9.46, 9.42, 9.08, 9.08, 9.02, 9.02, 9.3, 9.3, 8.94, 9.21, 9.21, 9.1, 9.1, 9.35, 8.96, 8.96, 8.68, 8.68, 8.51, 8.4, 8.63, 8.34, 8.25, 8.25, 7.98, 7.98, 7.47, 7.71, 7.71, 7.28, 7.21, 7.12, 6.7, 6.57, 6.4, 6.4, 6.64, 6.8, 6.32, 5.06, 0.0, 0.0, 7.15, 7.15, 0.0, 0.0, -2.54, -3.6, -3.6, -2.06, -2.06, 0.0, 3.15, 5.69, 8.72, 11.02, 10.0, 0.0, -6.01, -5.69, -3.91, -3.35, -1.11, 0.0, 1.47, 1.67, 1.67, 1.67, 8.2, 8.2, 8.2, 8.2, 8.2, 8.49, 8.85, 8.85, 9.17, 9.17, 9.19, 9.19, 9.5, 9.19, 9.48, 9.77, 9.77, 9.77, 10.09, 10.36, 10.36, 10.65, 10.65, 10.65, 10.88, 10.65, 10.65, 10.3, 10.06, 9.72, 9.46, 9.42, 9.08, 9.08, 9.02, 9.02, 9.3, 8.94, 8.94, 9.21, 8.65, 8.65, 8.93, 8.55, 8.82, 8.82, 8.82, 8.68, 8.28, 8.4, 8.4, 8.12, 8.0, 8.25, 7.73, 7.73, 7.98, 7.47, 7.47, 7.71, 7.21, 7.21, 7.12, 6.99, 6.99, 6.8, 6.52, 6.08, 5.69, 5.37, 4.74, 0.0, 6.71, 7.6, 6.71, -3.4, -4.22, -7.2, -5.69, -2.54, -2.06, 0.0, 2.69, 5.03, 7.67, 10.6, 11.03, 9.6, 4.4, 0.0, -2.17, -2.69, -2.46, 0.0, 0.0, 1.67, 1.67, 1.67, 8.2, 8.2, 8.49, 8.49, 8.49, 8.49, 8.85, 8.85, 8.87, 9.17, 8.87, 9.19, 9.19, 9.48, 9.48, 9.77, 9.77, 9.77, 9.77, 10.09, 10.36, 10.65, 10.65, 10.65, 10.65, 10.65, 10.65, 10.3, 10.06, 9.72, 9.46, 9.42, 9.08, 9.08, 9.02, 8.78, 9.08, 8.73, 8.73, 8.65, 8.65, 8.65, 8.93, 8.93, 8.55, 8.82, 8.43, 8.43, 8.68, 8.15, 8.27, 8.27, 8.0, 8.0, 7.85, 7.73, 7.73, 7.73, 7.2, 7.47, 7.35, 6.94, 6.8, 6.6, 6.6, 6.32, 5.93, 5.69, 5.69, 5.37, 4.74, 4.11, 5.36, 7.6, 6.26, -5.06, -5.95, -6.8, -6.8, -2.4, 0.0, 1.32, 2.54, 4.46, 6.63, 9.75, 10.18, 9.75, 9.13, 6.64, 2.28, 0.0, -1.67, 0.0, 1.67, 3.8, 3.8, 3.8, 8.2, 8.2, 8.49, 8.49, 8.49, 8.49, 8.85, 8.85, 8.87, 9.17, 8.87, 9.19, 9.19, 9.48, 9.48, 9.77, 9.77, 9.77, 9.77, 10.09, 10.36, 10.65, 10.65, 10.65, 10.65, 10.65, 10.65, 10.3, 10.06, 9.72, 9.46, 9.42, 9.08, 9.08, 9.02, 8.78, 9.08, 8.73, 8.73, 8.65, 8.65, 8.65, 8.93, 8.93, 8.55, 8.82, 8.43, 8.43, 8.68, 8.15, 8.27, 8.27, 8.0, 8.0, 7.85, 7.73, 7.73, 7.73, 7.2, 7.47, 7.35, 6.94, 6.8, 6.6, 6.6, 6.32, 5.93, 5.69, 5.69, 5.37, 4.74, 4.11, 5.36, 7.6, 6.26, -5.06, -7.21, -6.8, -6.8, -2.4, 0.0, 1.32, 2.54, 4.46, 5.69, 8.0, 9.03, 9.74, 9.74, 9.74, 9.7, 8.72, 7.6, 7.6, 7.6, 7.89, 7.89, 7.89]}, {"header": {"dx": 0.06612293990616946, "dy": 0.0552356325346848, "nx": 98, "ny": 59, "la1": 35.046912555036876, "la2": 31.78801023549047, "lo1": -121.43107172385933, "lo2": -114.95102361305473, "refTime": "2026040810", "parameterCategory": 1, "parameterNumber": 3}, "data": [-11.96, -12.17, -12.17, -11.96, -12.05, -11.9, -11.6, -11.69, -11.69, -11.33, -10.82, -9.3, -11.21, -10.73, -9.33, -7.81, -7.21, -6.01, -4.47, -3.91, -2.4, -0.0, 0.95, 2.12, 2.49, 2.8, -0.0, -0.0, -0.0, 0.0, 0.0, 4.11, 2.98, 2.4, 1.99, 0.96, 0.0, -1.1, -1.32, 0.0, 3.2, 1.95, 0.0, -3.98, -5.6, -6.31, -8.16, -9.71, -10.38, -8.99, -6.7, 7.9, 9.97, 9.55, 8.8, 8.18, 7.27, 6.69, 5.98, 4.8, 4.23, 3.82, 3.11, 4.2, 4.96, 4.14, 2.99, 2.69, 2.7, 3.29, 2.53, 2.08, 1.33, 0.0, 1.62, 2.39, 2.82, 1.44, -12.96, -0.0, 3.25, 1.4, -0.0, -2.0, -2.84, -3.48, -5.36, 0.0, -1.98, -1.84, -3.91, -5.64, -7.42, -8.02, -7.68, -6.94, -5.69, -4.03, -11.6, -12.17, -12.37, -12.17, -12.27, -11.8, -11.87, -11.95, -11.6, -11.69, -10.73, -10.12, -8.22, -7.59, -10.18, -9.33, -6.98, -6.95, -5.31, -3.9, -3.35, -2.33, -0.0, 1.49, 3.45, 4.02, 4.02, 1.63, -0.0, -0.0, -0.0, 6.26, 5.2, 4.11, 3.49, 2.8, 1.96, 0.0, -1.18, -3.4, -2.54, -2.39, -5.0, -7.36, -9.31, -11.19, -11.94, -12.36, -11.13, -8.49, -2.71, 9.97, 9.55, 8.8, 9.04, 8.93, 7.81, 6.69, 6.17, 5.69, 4.18, 4.05, 5.06, 5.63, 6.32, 5.03, 4.21, 3.14, 2.7, 3.25, 3.42, 2.82, 1.23, 0.0, 0.0, 1.47, 2.49, 1.44, -12.96, -0.0, 3.25, 1.4, -0.0, -2.0, -2.84, -3.48, -5.36, 0.0, -1.98, -1.84, -3.91, -5.64, -7.42, -8.02, -7.68, -6.94, -5.69, -4.03, -11.6, -12.17, -12.37, -12.17, -12.17, -12.05, -12.16, -11.87, -11.87, -11.25, -10.29, -8.32, -9.08, -7.9, -5.9, -5.46, -9.54, -8.8, -6.95, -5.72, -4.95, -4.66, -3.52, -1.4, -0.0, 3.45, 4.74, 4.02, -0.0, -1.73, -3.4, -2.26, -0.0, 7.15, 5.21, 3.4, 1.96, 0.94, -1.05, -4.0, -6.3, -8.64, -10.51, -13.12, -14.77, -15.04, -14.22, -12.47, -9.48, -2.6, 8.8, 9.13, 8.43, 9.04, 8.79, 8.54, 7.47, 6.69, 6.17, 4.99, 4.18, 4.6, 5.46, 6.64, 6.32, 4.94, 4.98, 4.99, 4.8, 4.62, 5.4, 4.49, 2.16, 0.0, -1.32, 0.0, 0.0, 1.97, -5.15, -3.25, -0.0, -0.0, -4.22, -3.22, -1.8, -1.99, -1.7, -6.26, -3.49, -3.6, -5.41, -6.84, -7.78, -8.22, -8.22, -7.06, -4.16, -3.11, -11.9, -11.81, -12.37, -12.37, -12.17, -11.96, -12.07, -11.8, -11.52, -11.18, -10.15, -9.14, -10.09, -8.55, -8.03, -7.27, -7.27, -9.96, -8.93, -6.4, -3.99, -3.91, -4.44, -4.5, -2.83, -0.0, 1.4, 3.72, 2.12, -4.22, -5.69, -5.59, -4.37, -4.71, 0.0, 0.0, 0.0, -1.39, -3.82, -7.26, -10.22, -13.18, -14.86, -14.2, -12.84, -11.7, -9.49, -4.05, 0.0, 6.32, 6.63, 8.05, 8.4, 8.63, 8.63, 8.0, 6.95, 6.4, 4.99, 4.18, 4.18, 4.6, 6.3, 7.56, 6.32, 6.18, 5.46, 6.42, 7.36, 7.51, 7.26, 5.48, 3.32, 0.0, -5.59, -6.63, -3.99, -1.55, -2.15, -9.48, -3.15, -3.22, -2.66, -1.6, -1.47, -0.81, -2.6, -5.51, -4.74, -6.31, -7.12, -7.36, -7.9, -7.59, -6.01, -3.72, -2.8, -2.64, -11.9, -11.81, -12.37, -12.37, -12.17, -12.17, -12.32, -12.07, -11.8, -11.18, -9.82, -9.32, -9.7, -9.2, -9.2, -9.6, -8.93, -8.73, -11.18, -7.9, -5.1, -3.6, -2.54, -3.52, -3.32, -3.7, -1.67, -2.54, -5.69, -6.8, -7.89, -7.81, -8.42, -9.2, -9.83, -8.8, -8.55, -8.22, -9.8, -12.92, -13.59, -11.88, -9.8, -6.08, -2.62, 0.0, 0.0, 2.04, 3.14, 4.21, 5.59, 6.32, 7.67, 8.4, 8.15, 7.56, 6.3, 5.72, 5.7, 4.6, 3.25, 5.1, 7.56, 7.47, 7.06, 6.04, 5.46, 6.18, 7.13, 7.64, 6.88, 5.49, 5.65, 4.37, -2.45, -7.74, -7.2, -4.71, -1.98, -7.51, -2.44, -2.2, -2.6, -1.96, -1.47, -3.35, -5.36, -6.28, -8.69, -9.02, -7.93, -6.15, -7.13, -4.43, -3.47, -1.52, -1.72, -3.14, -11.9, -12.09, -11.99, -12.37, -12.37, -12.17, -12.54, -11.96, -11.72, -11.09, -10.04, -8.93, -8.93, -8.82, -9.2, -9.6, -9.86, -9.67, -10.4, -10.48, -7.64, -6.31, -5.69, -4.2, -4.44, -5.46, -6.01, -7.15, -8.77, -9.39, -8.24, -8.94, -8.82, -10.89, -12.07, -11.53, -11.36, -11.03, -11.87, -13.34, -13.38, -10.79, -5.75, 0.0, 0.97, 0.89, 0.86, 0.0, 0.93, 1.16, 2.97, 4.6, 6.32, 8.05, 7.33, 6.95, 6.3, 6.3, 4.78, 3.67, 3.65, 5.46, 7.56, 6.64, 5.89, 5.06, 5.46, 5.2, 5.44, 4.6, 3.68, 3.81, 5.81, 6.16, 4.12, -7.13, -8.22, -5.21, -3.22, -6.64, -3.72, -4.01, -4.01, -3.77, -5.06, -7.74, -8.0, -10.2, -11.07, -9.97, -8.35, -8.37, -5.86, -0.0, -0.0, -3.0, -2.67, -3.65, -11.9, -12.09, -12.09, -12.37, -12.37, -12.37, -12.17, -12.17, -11.6, -11.32, -10.04, -8.38, -8.03, -6.17, -6.45, -8.58, -10.0, -10.48, -9.66, -12.39, -10.23, -10.51, -10.51, -10.98, -9.88, -9.67, -10.8, -11.13, -10.18, -8.6, -9.83, -8.0, -6.64, -8.06, -10.7, -12.05, -12.42, -11.2, -9.76, -10.79, -12.72, -11.91, -11.87, -8.3, -5.99, -3.56, -2.62, -0.82, 0.0, 0.0, 0.0, 1.54, 6.64, 8.05, 7.33, 6.64, 6.01, 5.46, 4.4, 3.36, 3.99, 5.21, 5.21, 4.44, 3.99, 4.74, 3.99, 3.52, 1.07, 0.0, 0.0, 0.0, 0.93, 2.02, 2.01, 0.0, -6.2, -6.01, 0.0, -5.46, -6.32, -6.94, -7.76, -8.17, -10.08, -10.73, -11.8, -12.52, -12.39, -11.38, -10.04, -10.24, -2.12, -0.0, -6.4, -4.74, -4.71, -4.2, -11.53, -12.09, -12.09, -12.27, -12.37, -12.37, -12.17, -12.17, -11.81, -10.96, -9.48, -8.8, -8.82, -7.9, -4.48, -3.98, -5.98, -8.01, -7.68, -6.43, -6.67, -12.35, -9.42, -13.42, -13.59, -12.62, -12.6, -12.21, -9.67, -9.09, -9.55, -11.18, -10.96, -9.6, -10.18, -11.96, -12.05, -10.89, -9.46, -8.24, -10.4, -10.84, -12.51, -13.67, -11.77, -9.3, -5.49, -3.36, -1.76, -2.33, -2.97, 0.0, 7.68, 8.18, 7.56, 6.95, 5.72, 4.4, 3.99, 2.83, 2.97, 3.7, 2.97, 2.99, 4.56, 4.14, 2.28, 0.0, -1.32, -2.09, -0.89, -0.93, -1.84, -2.53, -2.81, 0.0, 1.38, 5.4, 3.44, 0.0, -10.02, -12.02, -9.36, -9.36, -10.73, -11.86, -12.09, -12.3, -12.18, -11.03, -10.84, -3.35, -0.0, -1.4, -7.15, -5.15, -5.21, -4.71, -11.72, -12.09, -12.09, -11.81, -12.37, -12.37, -12.37, -12.17, -11.81, -10.79, -9.86, -10.53, -12.46, -11.85, -10.19, -7.82, -7.19, -7.54, -6.87, -3.96, 0.0, -2.54, -11.6, -11.61, -10.6, -9.7, -8.8, -8.75, -9.69, -9.3, -11.4, -12.96, -13.86, -13.59, -11.45, -10.08, -10.91, -10.66, -9.11, -9.21, -9.75, -10.7, -12.18, -11.99, -11.03, -10.89, -11.03, -8.15, -5.9, -4.4, -3.25, 4.2, 8.05, 8.18, 6.64, 6.11, 5.63, 4.99, 3.82, 2.7, 2.7, 1.11, 0.0, 4.74, 8.05, 6.01, 1.16, 0.0, -1.4, -1.58, -1.14, -1.54, -2.44, -3.6, -3.07, -0.98, 1.26, 2.23, 1.97, 1.78, 0.0, -14.22, -9.83, -8.46, -9.28, -10.05, -10.25, -10.21, -10.62, -9.13, -0.82, -0.0, -1.47, -5.75, -6.36, -4.43, -5.94, -5.3, -11.72, -11.72, -12.09, -11.81, -12.17, -12.37, -12.37, -12.17, -12.09, -10.79, -10.79, -11.46, -10.92, -12.79, -13.5, -12.6, -12.79, -12.65, -12.81, -11.99, -12.04, -11.12, -11.88, -13.41, -8.82, -6.64, -6.01, -8.15, -10.02, -11.21, -12.52, -14.3, -14.3, -12.52, -11.18, -9.75, -6.98, -6.6, -7.74, -8.6, -10.41, -10.89, -7.74, -5.06, -6.71, -7.15, -7.15, -7.81, -7.28, -5.59, -2.83, 7.44, 8.05, 7.21, 6.64, 5.9, 4.8, 3.82, 2.94, 1.84, 0.89, 0.0, 0.0, 7.6, 8.49, 6.01, 2.28, 1.84, 1.32, -1.67, -2.69, -2.41, -2.93, -2.82, -1.52, -0.89, -1.2, -2.17, -1.84, -0.86, 0.0, -1.18, -13.28, -7.31, -6.45, -6.4, -6.7, -6.63, -6.7, -0.0, 1.05, -0.81, -4.54, -6.02, -6.64, -5.09, -6.01, -5.37, -11.72, -11.44, -11.81, -12.17, -12.17, -12.17, -12.17, -12.17, -12.09, -11.34, -11.06, -11.82, -11.82, -12.39, -13.57, -13.99, -15.04, -14.84, -14.77, -16.2, -17.26, -17.36, -16.15, -14.16, -10.8, -7.13, -8.72, -8.72, -11.33, -13.37, -12.96, -12.83, -12.07, -11.0, -10.93, -10.73, -9.38, -7.64, -5.58, -5.06, -7.01, -6.26, 6.36, 7.37, 6.32, 3.2, 1.49, -0.0, -0.0, -0.0, -0.0, 8.0, 6.32, 5.59, 5.46, 4.99, 3.97, 2.93, 1.0, 0.0, 0.0, 0.0, 4.46, 8.77, 8.33, 5.31, 5.21, 3.81, 2.21, -1.32, -2.97, -3.61, -3.6, -2.99, -2.51, -1.7, -3.65, -4.66, -5.46, -5.25, -4.04, -0.92, -1.26, -11.12, -5.36, -2.66, -2.4, -1.01, 0.0, 0.0, 0.0, -4.24, -4.66, -5.75, -6.51, -6.07, -6.06, -5.72, -11.44, -11.44, -11.81, -12.17, -12.17, -12.17, -12.17, -12.47, -12.09, -11.34, -11.34, -11.72, -12.47, -11.69, -10.81, -10.73, -11.34, -13.84, -15.27, -15.61, -14.75, -13.23, -11.88, -12.14, -7.6, -5.6, -5.6, -2.79, -4.98, -6.61, -8.49, -6.17, 0.0, -5.6, -10.41, -10.28, -10.08, -7.06, 0.0, 8.05, 6.8, 7.21, 6.58, 7.6, 6.8, 3.0, 3.4, 3.4, 3.6, -0.0, -5.37, -8.05, 0.0, 1.58, 2.54, 2.69, 2.71, 1.98, 0.0, -1.02, -2.12, -2.33, 8.94, 7.15, 8.24, 5.59, 6.44, 5.98, 3.39, 0.0, -2.95, -3.85, -3.61, -2.71, -2.95, -2.82, -3.82, -5.45, -6.7, -7.12, -7.19, -3.82, -1.04, -5.48, -2.6, -1.54, -1.26, -1.05, -1.11, 0.0, -0.82, -2.53, -4.38, -5.36, -5.75, -5.46, -5.82, -6.21, -11.44, -11.44, -11.81, -12.17, -12.17, -11.88, -12.17, -11.81, -12.09, -11.88, -11.88, -11.99, -12.17, -12.54, -11.77, -11.14, -10.54, -10.19, -11.46, -12.25, -11.34, -9.55, -8.06, -5.6, -3.48, -4.4, -0.0, 4.46, 4.43, -1.63, -2.6, 1.41, 5.2, 5.81, 0.0, -4.43, -6.71, 7.6, 6.8, 6.8, -0.0, -3.0, -6.26, -5.2, -6.26, -5.2, -5.37, -5.06, -5.37, -6.8, -6.36, -7.08, -7.15, -6.13, -5.36, -3.49, 0.0, 1.45, 1.28, 0.0, -3.35, -4.96, 4.0, 3.8, 8.49, 4.22, 4.47, 6.58, 7.15, 5.2, 1.76, -1.62, -2.46, -2.21, -2.97, -3.53, -4.47, -5.52, -6.57, -6.79, -6.01, -5.1, -4.68, -4.81, -1.77, -1.77, -2.6, -3.7, -2.7, -1.05, -0.79, -0.76, -1.49, -3.48, -5.58, -4.81, -5.58, -6.0, -11.44, -11.44, -11.44, -11.81, -11.88, -11.52, -11.52, -11.99, -12.27, -12.27, -11.99, -11.99, -12.37, -12.45, -12.36, -11.38, -10.54, -10.31, -10.18, -10.79, -10.19, -9.76, -9.66, -10.09, -9.3, -9.2, -0.0, 3.76, 4.11, 3.11, 2.2, 1.14, 2.12, 5.2, 5.6, 5.21, 5.21, 6.4, 0.0, 0.0, -6.79, -6.61, -8.94, -9.16, -7.06, -6.71, -7.63, -9.21, -8.6, -9.33, -9.33, -10.73, -13.33, -13.79, -12.22, -11.13, -8.05, -1.58, 0.0, 1.32, -8.49, -7.44, -2.83, -4.71, -5.95, -7.15, 0.0, 5.6, 8.18, 7.2, 10.18, 10.73, 10.18, 0.0, -3.11, -4.15, -4.8, -4.96, -5.49, -4.83, -5.06, -6.39, -7.51, -7.79, -5.18, -4.98, -5.27, -4.6, -2.4, -0.95, -0.83, -0.67, -0.76, -1.7, -3.22, -2.98, -3.76, -5.21, -11.44, -11.44, -11.16, -11.52, -11.52, -11.52, -11.72, -11.99, -11.99, -11.99, -12.16, -12.54, -12.09, -12.45, -12.63, -12.36, -11.34, -10.6, -9.77, -10.01, -9.7, -9.06, -8.49, -9.8, -10.73, -11.6, -11.03, -0.0, 2.6, 2.2, 1.55, 0.7, -0.0, 3.2, 7.15, 0.0, 0.0, 0.0, 0.0, -7.15, -7.15, -7.6, -9.77, -7.15, -5.81, -6.71, -6.71, -6.07, -6.36, -8.24, -9.32, -9.83, -9.6, -7.98, -6.71, -7.6, -6.71, -7.6, -2.54, 3.4, -2.54, -6.44, -6.52, -7.21, -7.21, -7.06, -7.15, 0.0, 2.8, 7.01, 7.15, 10.28, 11.62, 10.41, 0.0, -1.84, -2.54, -3.6, -4.42, -4.22, -5.06, -5.06, -5.86, -5.41, -5.29, -7.68, -7.11, -3.53, 0.0, 0.0, 0.0, -1.55, -1.41, -1.47, -1.72, -1.99, -4.11, -4.11, -11.16, -11.35, -11.16, -11.52, -11.52, -11.52, -11.72, -11.72, -11.99, -11.99, -12.54, -12.27, -12.09, -12.16, -12.52, -12.31, -12.02, -11.03, -10.3, -10.25, -9.95, -8.94, -8.2, -7.74, -9.06, -10.52, -10.01, 0.0, 4.4, 5.37, 0.0, 2.6, 2.98, 5.37, 7.15, 6.71, 0.0, 0.0, 0.0, -7.6, -6.26, -5.7, -6.71, -0.0, -0.0, 7.15, 7.15, 0.0, -6.71, -6.26, -6.26, -6.61, -6.58, -6.0, -6.26, -6.26, -6.71, -6.64, -4.22, 0.0, -5.37, -5.37, -6.36, -6.58, -6.36, -6.79, -6.94, -8.05, 7.6, 6.71, 7.21, 9.7, 12.52, 10.4, 8.4, 5.69, 3.8, 0.0, -3.8, -4.46, -4.46, -3.4, -3.4, -2.54, -2.54, -1.23, -5.29, 0.0, 3.8, 1.49, 0.0, -2.2, -1.7, -1.6, -1.75, -2.8, -3.07, -3.07, -11.16, -11.16, -11.52, -11.16, -11.16, -11.29, -11.72, -12.09, -11.72, -11.72, -12.09, -12.09, -12.65, -12.16, -12.22, -11.97, -11.37, -10.74, -10.72, -9.95, -10.01, -8.69, -7.69, -7.03, -5.73, -5.3, -2.89, 0.0, 0.0, 0.0, 0.0, 0.0, 4.74, 8.05, 6.26, 6.71, 6.0, 0.0, 0.0, -5.81, -5.36, -5.36, -0.0, -0.0, 0.0, 7.6, 7.6, 7.15, 5.06, 5.06, 0.0, 0.0, 0.0, 7.15, 7.15, 0.0, -5.37, 0.0, 0.0, 0.0, 0.0, 5.69, 5.06, 0.0, -6.71, -5.81, -7.15, -7.15, 0.0, 5.94, 6.01, 5.0, 0.0, 0.0, 0.0, 8.49, 9.11, 9.33, 9.83, 0.0, 0.0, 0.0, -2.54, -2.54, -2.44, -1.1, 0.0, 2.0, 0.0, -1.0, -1.6, -1.95, -2.8, -3.33, -3.45, -3.55, -3.48, -3.48, -11.16, -11.16, -11.52, -11.52, -11.16, -10.94, -11.52, -11.72, -12.09, -12.09, -12.09, -12.45, -12.16, -12.37, -11.87, -11.33, -11.06, -11.06, -10.1, -8.78, -8.11, -8.11, -7.69, -6.0, -3.91, -1.78, -1.0, 0.0, 0.0, 0.0, -1.29, -1.58, 0.0, 6.26, 5.36, 6.94, 6.0, 0.0, -5.81, -5.81, -6.26, -5.06, -4.74, -6.4, -7.6, 0.0, 0.0, 0.0, 7.6, 5.37, 6.8, 6.8, 7.6, 7.6, 0.0, 0.0, 0.0, 0.0, 0.0, 0.0, 0.0, 5.69, 5.37, 6.71, 6.26, 5.81, -5.81, -7.15, -9.83, 0.0, -8.53, -10.4, -9.6, -8.0, -2.97, 6.64, 9.39, 8.8, 7.81, 6.01, 0.0, 0.0, -1.4, -4.2, -3.6, -3.91, -4.46, 0.0, -1.72, -3.27, -2.7, -1.0, -2.64, -4.42, -4.03, -3.72, -3.07, -3.07, -11.16, -11.16, -10.88, -11.23, -11.16, -10.94, -11.29, -11.44, -11.8, -11.8, -12.09, -12.24, -12.28, -12.52, -12.16, -12.9, -10.72, -10.43, -8.87, -7.19, -7.17, -7.54, -8.18, -6.42, -4.81, -3.2, -2.72, -2.89, -3.1, -3.25, -4.1, -3.82, 0.0, 8.94, 6.51, 5.81, 5.21, -0.0, -5.06, -6.0, -3.79, -0.0, -0.0, -0.0, -0.0, 0.0, 8.05, 8.05, 0.0, 7.6, 7.6, 5.37, 7.6, 7.6, 7.6, 8.05, 0.0, 0.0, 0.0, 0.0, 0.0, 0.0, 7.6, 5.94, 5.64, 5.2, -6.26, -5.36, -6.32, -5.95, -4.6, -1.84, -1.98, -2.93, -11.62, -0.0, 0.0, 0.0, 2.28, 2.69, 0.0, 0.0, -4.83, -5.46, -6.3, -6.79, -7.68, -8.24, -6.31, -6.58, -4.26, -2.83, -3.4, -5.24, -5.06, -4.01, -4.11, -4.11, -11.16, -11.16, -10.88, -10.88, -10.88, -10.94, -11.29, -11.23, -11.8, -11.8, -11.8, -11.93, -12.28, -12.28, -11.97, -11.36, -10.4, -10.36, -10.22, -8.49, -7.98, -7.98, -9.09, -9.91, -9.87, -9.77, -8.97, -8.65, -8.43, -6.9, -6.45, -5.95, 0.0, 6.32, 5.69, 4.02, 3.49, 2.6, -0.0, -1.52, -0.0, 2.4, 3.16, 3.16, 3.48, 5.37, 7.6, 7.6, 7.6, 7.6, 7.6, 7.6, 7.6, 7.6, 6.71, 5.06, 0.0, 0.0, 0.0, 0.0, 0.0, 7.6, 5.06, 5.06, 5.2, 4.11, 0.0, -3.72, -2.82, 0.0, 2.7, 2.24, 2.11, 0.0, -4.18, -10.35, -10.38, -9.2, -3.8, 0.0, 0.0, 0.0, 0.0, -3.8, -6.01, -5.06, -5.15, -4.74, -7.9, -6.73, -6.55, -5.89, -5.46, -6.11, -6.44, -5.77, -5.43, -5.43, -11.16, -11.16, -10.88, -10.88, -10.88, -10.88, -10.65, -10.99, -11.52, -11.87, -11.8, -11.93, -12.28, -12.28, -11.97, -11.37, -10.4, -10.06, -9.94, -11.33, -11.52, -10.25, -10.25, -10.65, -12.01, -12.01, -10.65, -10.27, -9.57, -7.73, -7.59, -8.49, -6.01, -0.0, 2.4, 1.63, 1.41, 1.41, -0.0, -0.0, 2.12, 4.43, 4.43, 4.43, 3.79, 5.37, 0.0, 0.0, 7.6, 7.15, 7.15, 7.15, 7.6, 7.6, 7.6, 5.06, 3.6, 0.0, 0.0, 0.0, 7.6, 6.8, 5.06, 5.06, -0.0, -0.0, -0.0, 0.0, 3.97, 6.63, 8.22, 7.44, 5.09, 1.1, -5.81, -12.11, -12.66, -11.92, -10.08, -7.6, 0.0, 0.0, 5.69, 7.15, 6.71, 0.0, -5.36, -4.11, -0.96, -2.8, -6.18, -7.35, -6.83, -5.37, -6.13, -6.25, -5.95, -5.95, -11.16, -11.16, -10.88, -10.88, -10.88, -10.88, -10.88, -10.99, -11.28, -11.87, -11.87, -11.87, -11.93, -11.97, -11.97, -11.66, -10.75, -10.09, -11.33, -12.71, -12.35, -11.7, -11.03, -11.03, -11.34, -11.31, -10.25, -9.53, -9.17, -7.9, 0.0, -0.0, -0.0, -0.0, -0.0, -0.0, -0.0, -0.0, -0.0, -0.0, 1.98, 4.43, 5.21, 5.21, 4.84, 3.79, -0.0, -0.0, 7.15, 6.71, 7.15, 7.6, 7.15, 7.15, 5.06, 5.37, 6.8, 8.49, 0.0, 0.0, 5.06, 5.95, 5.95, 4.74, -0.0, -0.0, -0.0, -0.0, 6.26, 8.05, 7.15, 6.7, 7.69, 5.98, -8.67, -13.5, -15.44, -14.94, -12.89, -10.28, -0.0, 0.0, 6.71, 6.26, 6.36, 3.22, -0.0, -6.26, -4.22, -3.49, -6.57, -7.61, -6.92, -5.06, -3.72, -4.93, -4.84, -4.84, -11.16, -11.16, -10.88, -10.65, -10.65, -10.65, -11.23, -10.69, -11.03, -11.63, -11.87, -11.87, -11.97, -11.97, -11.92, -11.36, -11.03, -10.4, -11.36, -11.7, -11.66, -10.39, -10.06, -10.4, -11.06, -11.01, -10.3, -9.11, -7.68, -4.4, 0.0, 0.0, 0.0, 0.0, -0.0, -0.0, -0.0, -0.0, -0.0, -0.0, 1.98, 4.43, 5.01, 5.01, 4.46, 3.48, 5.06, 4.74, 4.43, 7.15, 7.6, 0.0, 7.6, 7.15, 7.15, 7.15, 6.71, 6.4, 8.05, 0.0, 5.06, 5.37, 7.6, 7.15, 0.0, 4.11, 0.0, 0.0, -0.0, 0.0, 0.0, 5.69, 13.86, 8.49, -5.36, -9.79, -13.44, -14.39, -14.65, -13.86, -9.2, -0.0, -0.0, 6.71, -0.0, -0.0, -6.36, -7.06, -8.93, -7.72, -7.63, -8.24, -7.61, -3.15, -2.23, -3.58, -3.48, -3.48, -11.16, -11.16, -10.88, -10.88, -10.65, -10.65, -10.65, -10.94, -11.03, -11.36, -11.33, -11.66, -11.66, -11.97, -11.92, -11.63, -11.36, -10.43, -11.37, -11.05, -10.65, -9.39, -8.75, -8.81, -9.71, -10.01, -10.25, -9.11, -7.62, -5.4, -3.98, 0.0, 0.0, -5.06, -6.71, -6.71, -4.43, -0.0, -0.0, -0.0, 1.84, 3.47, 4.74, 5.01, 4.65, 2.95, 4.74, -0.0, -0.0, 5.37, 5.69, 7.6, 0.0, 7.15, 7.15, 7.15, 5.81, 4.74, 0.0, 0.0, 5.36, -0.0, 0.0, 0.0, 0.0, 0.0, 0.0, 0.0, 0.0, 0.0, -6.71, -8.4, 0.0, 0.0, -5.81, -4.92, -8.3, -10.73, -12.27, -12.27, -12.52, -9.83, -6.01, -8.05, -6.8, -6.79, -7.15, -8.85, -8.63, -5.43, -6.24, -5.38, -4.12, -2.0, -0.98, -2.53, -3.22, -3.22, -11.16, -11.16, -10.88, -10.88, -10.65, -10.65, -10.65, -10.69, -10.99, -11.05, -11.05, -11.05, -11.66, -11.66, -11.33, -11.63, -11.63, -11.03, -11.03, -11.07, -10.42, -9.66, -8.72, -8.33, -8.64, -9.02, -9.6, -9.53, -8.31, -7.69, -6.63, -4.4, -3.65, -2.17, -2.69, -5.69, -7.6, -7.15, -0.0, -0.0, 2.12, 3.72, 5.06, 4.74, 4.43, 3.49, 1.41, 1.84, 3.47, 2.8, 4.11, 5.37, 5.06, 5.06, 7.6, 7.15, 6.71, 4.11, -0.0, 0.0, 0.0, 0.0, -5.36, 0.0, 0.0, 0.0, 0.0, 8.49, 7.6, -6.71, -6.8, -4.75, -1.76, 0.0, 0.0, 0.0, -1.41, -2.95, -5.36, -7.54, -9.48, -11.2, -11.18, -10.28, -7.81, -7.45, -8.05, -7.97, -6.88, -5.6, -4.43, -5.03, -4.02, -0.96, -1.41, -2.11, -2.88, -2.88, -11.16, -11.16, -10.88, -10.65, -10.65, -10.65, -10.65, -10.69, -11.03, -10.99, -11.05, -11.05, -11.37, -11.37, -11.66, -11.36, -11.63, -11.36, -11.36, -11.06, -10.47, -10.13, -9.09, -8.53, -8.84, -8.51, -8.46, -8.72, -8.49, -7.62, -7.18, -5.4, -5.0, -4.05, -3.11, -4.0, -6.01, -8.49, -8.05, -0.0, -0.0, 2.4, 4.22, 5.37, 3.97, 3.72, 2.12, 1.52, 2.8, 3.49, 3.79, 3.48, 6.0, 6.4, 6.8, 6.8, 6.0, 6.26, 0.0, -7.15, 0.0, 0.0, 0.0, 0.0, 0.0, 0.0, 0.0, 5.69, -0.0, -6.71, -5.95, -6.32, -3.17, -1.16, 1.29, 3.96, 4.24, -0.95, -3.22, -5.59, -9.17, -11.9, -12.45, -10.18, -4.43, -6.94, -7.15, -7.6, -7.15, -6.26, -6.71, -1.73, -4.37, -3.2, -2.88, -2.29, -2.2, -2.2, -11.16, -11.16, -10.65, -10.65, -10.65, -10.65, -10.65, -10.36, -10.69, -10.72, -11.33, -10.75, -11.06, -10.75, -11.06, -11.06, -11.03, -11.36, -11.36, -11.06, -10.47, -10.13, -9.48, -9.09, -8.53, -8.58, -8.58, -8.95, -8.21, -7.93, -7.1, -6.84, -6.0, -5.35, -4.8, -4.18, -4.88, -6.14, -7.51, -8.48, -8.94, -0.0, 3.8, 4.46, 2.4, -0.0, -0.0, -0.0, 1.63, 2.8, 3.49, 3.48, 3.49, 3.49, 4.43, 5.58, 6.4, 6.71, 0.0, -6.71, -8.05, 0.0, 0.0, 0.0, -8.94, -8.49, 0.0, -0.0, -5.06, -7.15, -6.94, -5.93, -5.15, -3.14, 1.16, 4.54, 6.65, 1.76, -4.43, -5.58, -8.93, -11.64, -12.79, -9.6, -2.26, -6.0, -7.01, -6.64, -5.95, -5.06, -6.0, -6.07, -4.14, -5.31, -4.29, -3.38, -2.6, -2.6, -10.94, -10.94, -10.65, -10.65, -10.65, -10.65, -10.36, -10.36, -10.69, -10.4, -10.72, -11.03, -11.03, -10.75, -10.75, -10.43, -10.43, -11.03, -11.03, -10.76, -10.47, -10.47, -10.13, -9.48, -8.68, -8.58, -8.96, -8.66, -8.66, -7.51, -7.1, -6.84, -6.57, -5.76, -5.76, -5.29, -5.45, -5.72, -6.64, -7.51, -8.0, 0.0, 6.01, 3.8, -0.0, -0.0, -3.8, -0.0, 2.26, 3.72, 4.11, 4.29, 4.22, 4.4, 4.09, 4.84, 6.0, 6.71, 6.26, 0.0, -7.15, -7.6, 0.0, 0.0, -6.01, -9.83, 0.0, 0.0, -5.37, -7.6, -7.21, -6.28, -6.52, -6.52, -3.4, -1.07, 0.0, 6.95, -5.6, -5.37, -6.7, -10.73, -13.29, -11.62, -0.0, -5.37, -5.21, -4.47, -3.97, -5.95, -6.94, -7.15, -5.06, -5.69, -6.18, -4.74, -3.76, -3.76, -10.94, -10.94, -10.65, -10.65, -10.65, -10.65, -10.36, -10.36, -10.4, -10.4, -10.72, -10.75, -11.36, -11.06, -10.76, -10.45, -10.13, -10.75, -10.75, -10.45, -10.47, -10.13, -10.13, -10.13, -8.83, -8.85, -8.78, -9.08, -8.73, -7.9, -7.51, -6.7, -6.45, -6.2, -6.31, -5.52, -5.9, -5.9, -6.95, -6.95, -7.51, -6.32, 0.0, -0.0, -0.0, -0.0, -0.0, -0.0, -0.0, 2.12, 4.11, 4.8, 4.57, 4.57, 4.4, 4.0, 5.6, 6.71, 6.26, 0.0, -4.74, -0.0, -0.0, 0.0, -8.94, 8.49, 8.94, 8.05, -0.0, -5.37, -7.63, -4.14, -4.71, -6.91, -9.38, -9.7, -9.2, 0.0, -5.81, -4.65, -3.63, -8.97, -12.27, -12.39, 6.64, -1.7, -3.79, -4.43, -6.07, -6.26, -6.26, -6.26, -5.58, -5.37, -5.93, -6.18, -4.65, -4.65, -10.94, -10.94, -10.65, -10.65, -10.65, -10.36, -10.36, -10.69, -10.4, -10.4, -10.4, -11.05, -10.75, -11.06, -11.38, -10.76, -10.45, -10.45, -10.45, -10.45, -10.76, -10.13, -10.13, -10.13, -10.13, -9.22, -9.16, -9.08, -8.73, -8.37, -7.9, -7.51, -6.7, -6.45, -6.2, -6.31, -6.05, -6.83, -7.27, -6.95, -7.68, -7.81, -8.94, -5.69, -2.26, -0.0, -0.0, -5.06, -0.0, 3.48, 4.4, 4.66, 4.77, 4.82, 4.57, 4.66, 4.24, 4.24, 5.94, 1.98, -0.0, -0.0, -0.0, -0.0, 8.05, 8.05, 8.05, 8.94, 4.43, -5.37, -8.05, -5.37, -2.06, -3.98, -8.85, -10.82, -10.04, -7.6, -3.48, -4.11, -3.79, -7.35, -10.62, -12.79, 5.8, 2.12, -1.7, -3.79, -4.66, -6.58, -7.37, -8.05, -8.06, -6.32, -6.79, -6.63, -5.15, -5.15, -10.59, -10.59, -10.65, -10.65, -10.65, -10.36, -10.36, -10.69, -10.4, -10.72, -10.72, -10.4, -10.75, -10.75, -11.06, -10.47, -10.47, -10.76, -10.76, -10.76, -10.47, -10.47, -10.13, -10.13, -10.13, -9.84, -9.5, -9.46, -8.73, -8.29, -7.79, -7.79, -6.77, -6.87, -6.62, -6.71, -6.79, -6.88, -7.27, -7.27, -7.56, -6.95, -7.81, -8.49, -5.37, -5.69, -7.6, -6.71, 0.0, 3.58, 3.58, 4.02, 4.47, 4.77, 4.82, 4.82, 4.57, 4.8, 3.78, 3.49, 1.63, -0.0, -0.0, -0.0, 8.05, 7.6, 4.74, 0.0, 0.0, -5.06, -5.94, -5.94, -3.2, 0.0, -1.9, -7.66, -9.22, -6.87, -6.64, -5.69, -7.87, -7.67, -9.48, -11.99, -9.48, 4.32, 2.82, -0.0, -1.41, -2.0, -2.95, -4.09, -6.26, -4.22, -7.15, -7.67, -5.69, -5.69, -10.59, -10.59, -10.3, -10.65, -10.65, -10.36, -10.36, -10.4, -10.4, -10.72, -10.72, -10.72, -10.72, -10.75, -10.45, -10.76, -10.47, -11.08, -11.08, -11.08, -10.77, -10.77, -10.47, -10.13, -10.13, -10.13, -9.8, -9.8, -8.85, -7.73, -7.93, -7.93, -7.67, -6.7, -6.76, -6.81, -7.15, -7.18, -7.27, -7.27, -6.95, -7.56, -6.64, -6.32, -8.94, -9.39, -9.39, -8.05, 0.0, 5.81, 4.8, 4.92, 4.92, 4.92, 4.92, 4.47, 4.82, 4.98, 4.19, 3.22, 1.52, -0.0, 8.05, 7.6, 8.05, 7.6, 7.15, -7.6, -6.32, -4.56, -5.75, -7.15, -8.0, -1.62, 0.0, -2.15, -6.4, -6.45, -5.59, -5.46, -4.83, -5.46, -7.27, -8.22, -10.79, -0.0, 1.55, 1.11, -0.0, -0.0, -0.0, -1.3, -4.4, -3.48, -6.01, -6.32, -5.69, -5.69, -10.59, -10.59, -10.3, -10.65, -10.65, -10.36, -10.09, -10.12, -10.4, -10.43, -10.43, -10.43, -10.72, -10.72, -10.45, -10.45, -10.76, -10.76, -10.47, -10.77, -10.47, -10.47, -10.47, -10.13, -9.84, -9.84, -9.8, -9.8, -9.5, -8.67, -7.85, -7.54, -7.54, -7.14, -6.87, -6.5, -7.15, -7.22, -7.18, -6.83, -7.27, -6.95, -6.95, -6.64, -6.64, -8.4, -6.95, 0.0, 0.0, 5.06, 6.4, 6.0, 5.94, 5.51, 5.36, 4.47, 4.47, 4.34, 4.4, 3.48, 1.3, 7.15, 8.49, 7.6, 7.37, 7.45, 6.94, 7.15, -5.69, -4.71, -4.71, -8.94, -8.49, -7.21, -3.29, -2.5, -2.7, -4.46, 0.0, 0.0, 0.0, 0.0, 0.0, -1.91, -3.96, -6.67, -11.6, -1.98, -0.0, 1.4, 1.4, -0.0, -2.2, -4.02, -2.12, -3.8, -4.83, -4.83, -10.59, -10.59, -10.59, -10.3, -10.65, -10.36, -10.09, -10.12, -10.4, -10.43, -10.43, -10.75, -10.43, -10.43, -10.13, -10.13, -10.13, -10.13, -10.47, -10.77, -10.47, -10.76, -10.47, -10.47, -9.84, -9.5, -10.12, -10.43, -10.77, -9.48, -8.52, -7.91, -7.61, -7.26, -7.26, -6.61, -6.81, -7.22, -7.18, -7.27, -6.83, -6.95, -6.4, -6.95, -5.63, -5.46, -4.4, 0.0, 0.0, 3.8, 3.4, 4.74, 4.74, 5.51, 5.09, 4.66, 4.24, 4.02, 4.02, 3.82, 5.06, 7.6, 7.6, 6.8, 6.4, 6.4, 6.4, 4.74, -0.0, -8.49, -8.05, -9.39, -9.11, -7.64, -8.15, -4.66, 0.0, 3.53, 5.0, 3.92, 2.19, 0.0, 0.0, -1.44, -1.44, -3.96, -5.45, -8.05, -11.18, -0.0, 1.84, 1.98, -0.0, -3.58, -4.11, -1.58, -1.58, -1.58, -10.59, -10.59, -10.59, -10.3, -10.65, -10.36, -10.36, -10.4, -10.72, -10.43, -10.75, -10.75, -10.75, -10.43, -10.43, -10.13, -9.84, -10.13, -9.84, -10.13, -10.77, -10.47, -10.47, -10.47, -10.13, -9.79, -10.43, -10.13, -10.13, -9.48, -8.82, -8.21, -7.9, -7.26, -7.26, -6.61, -6.5, -6.87, -7.22, -6.88, -7.27, -6.53, -6.48, -6.4, -6.3, -5.06, -4.4, -2.97, 0.0, 0.0, 2.69, 4.46, 5.37, 5.06, 5.94, 5.51, 4.66, 4.24, 4.34, 4.34, 4.47, 6.8, 6.8, 6.8, 6.8, 7.6, 6.36, 5.06, -0.0, -2.4, -4.22, -8.94, -6.64, -6.86, -7.69, -4.24, 1.17, 6.21, 6.42, 4.1, 0.93, -1.09, -2.62, -3.04, -3.04, -2.9, -4.34, -3.56, -3.39, -1.63, 0.0, 5.36, 0.0, -4.02, -3.48, -4.22, -1.67, -1.67, -10.59, -10.59, -10.59, -10.3, -10.65, -10.36, -10.36, -10.4, -10.72, -10.43, -10.75, -10.75, -10.75, -10.43, -10.43, -10.43, -10.13, -10.13, -9.84, -10.13, -10.47, -10.77, -10.47, -10.47, -10.13, -9.79, -10.11, -10.13, -10.13, -9.17, -8.82, -8.2, -7.9, -7.26, -7.26, -6.98, -6.9, -6.54, -6.87, -6.88, -7.27, -6.53, -6.64, -5.9, -5.21, -5.1, -3.25, -1.93, 0.0, 0.0, 2.17, 4.71, 4.46, 5.37, 5.95, 5.58, 4.84, 4.46, 3.72, 4.0, 4.77, 4.77, 7.2, 5.95, 7.6, 8.49, 7.6, 7.63, 2.54, -0.0, -3.8, -6.8, -3.11, -1.09, -1.9, -2.16, 1.16, 3.81, 2.89, 0.92, 0.0, -2.28, -2.95, -4.8, -3.39, -1.58, -1.58, -1.16, -0.67, -0.89, 0.0, 0.0, 0.0, -2.84, -2.53, -4.11, -3.8, -3.8, -10.51, -10.51, -10.59, -10.3, -10.65, -10.36, -10.69, -10.4, -10.72, -10.43, -10.75, -10.75, -10.75, -10.75, -10.43, -10.43, -10.13, -9.84, -10.13, -10.13, -10.13, -10.47, -10.77, -10.47, -10.13, -9.79, -10.11, -10.12, -10.13, -9.5, -9.17, -8.2, -7.9, -7.24, -7.26, -7.26, -6.9, -6.9, -6.54, -6.79, -6.88, -6.53, -6.64, -4.6, -4.74, -4.4, -4.05, -3.25, -1.62, 0.0, 0.0, 2.06, 4.46, 4.22, 5.37, 5.06, 4.43, 4.11, 3.16, 3.93, 4.4, 4.82, 6.8, 6.79, 7.6, 8.49, 6.94, 6.8, 6.7, 3.4, -0.0, -0.0, 6.64, 3.39, 0.96, -1.13, -4.4, -4.28, -4.03, -3.49, -2.63, -2.13, -2.21, -2.99, -2.99, -1.32, -1.07, -0.7, 0.0, 0.0, 0.0, 0.0, 0.0, -2.0, -2.53, -3.16, -5.06, -5.69, -10.51, -10.51, -10.23, -10.59, -10.65, -10.36, -10.69, -10.4, -10.72, -10.43, -10.75, -10.75, -10.75, -10.75, -10.75, -10.43, -10.43, -10.13, -10.13, -10.13, -10.13, -10.13, -10.47, -10.77, -10.13, -9.5, -9.8, -10.44, -10.13, -9.8, -8.85, -8.52, -7.9, -6.97, -6.97, -7.26, -7.27, -6.9, -6.81, -6.11, -6.51, -6.14, -5.94, -5.1, -3.45, -2.95, -4.54, -3.77, -3.25, 0.0, 0.0, 2.06, 3.6, 4.22, 5.37, 5.06, 4.74, 4.11, 3.16, 3.93, 3.93, 4.57, 7.6, 6.71, 7.15, 8.05, 7.63, 6.94, 7.21, 6.8, 5.06, 5.69, 0.0, 1.39, 1.9, 1.08, -2.82, -8.32, -9.09, -8.11, -5.43, -3.3, -2.06, -2.26, -0.96, -0.88, 0.0, 0.0, 0.0, 0.0, 0.0, 0.0, 0.0, -1.84, -2.73, -3.16, -4.11, -5.06, -10.51, -10.51, -10.51, -10.23, -10.3, -10.65, -10.36, -10.4, -10.72, -10.43, -10.75, -10.75, -10.75, -10.75, -10.75, -10.43, -10.43, -10.43, -10.13, -10.13, -10.13, -10.13, -10.13, -10.47, -10.47, -9.84, -9.5, -9.8, -10.13, -9.48, -8.85, -8.53, -7.9, -6.97, -6.97, -6.98, -7.27, -6.9, -6.81, -6.11, -6.44, -6.05, -6.24, -5.59, -4.6, -3.98, -5.4, -5.0, -4.6, -1.84, 0.0, 2.06, 4.46, 4.22, 4.22, 5.06, 4.02, 3.22, 2.95, 2.95, 3.48, 3.93, 4.98, 7.6, 7.6, 7.6, 6.79, 6.4, 6.8, 7.6, 7.6, -0.0, -8.94, -2.39, 1.52, 5.4, 3.82, -1.11, -6.92, -7.44, -6.7, -3.87, -2.21, -0.95, 0.0, 0.0, 0.0, 0.0, 0.0, 0.0, 0.0, 0.0, -0.96, -3.2, -3.76, -3.22, -3.79, -4.11, -10.3, -10.3, -10.3, -10.23, -10.59, -10.3, -10.36, -10.69, -10.4, -10.72, -10.43, -10.43, -10.75, -10.75, -10.43, -10.72, -10.72, -10.43, -10.13, -10.13, -10.13, -10.13, -9.84, -10.13, -10.13, -10.13, -9.84, -9.5, -9.17, -9.48, -8.85, -8.53, -7.61, -6.97, -6.97, -6.71, -6.61, -6.9, -7.22, -6.54, -6.11, -5.7, -5.28, -5.38, -6.04, -6.45, -5.43, -4.66, -4.37, -2.06, 0.0, 2.69, 2.54, 4.22, 4.22, 5.06, 4.02, 3.49, 3.22, 2.95, 2.95, 3.93, 6.4, 7.15, 7.6, 7.6, 7.15, 8.05, 7.15, 7.6, 5.69, -0.0, -8.94, -8.94, 0.0, 4.83, 4.81, 2.33, 0.0, -4.0, -4.43, -2.32, -0.81, 0.0, 0.0, 0.0, 0.0, 0.0, 0.0, 0.0, 0.0, 0.0, -0.89, -2.99, -4.83, -5.06, -5.36, -5.36, -10.23, -10.23, -10.3, -10.3, -10.01, -10.3, -10.65, -10.36, -10.69, -10.4, -10.72, -10.43, -10.43, -10.43, -10.43, -10.72, -10.72, -10.72, -10.43, -9.84, -10.13, -10.13, -10.13, -9.84, -9.84, -9.84, -9.84, -9.8, -9.48, -8.85, -8.85, -8.53, -7.9, -7.33, -6.97, -6.97, -6.61, -6.63, -6.63, -6.54, -6.54, -5.85, -5.7, -5.18, -6.0, -5.78, -4.99, -3.17, -2.4, 0.0, 0.0, 0.0, 2.54, 2.54, 3.4, 4.56, 4.02, 3.76, 3.49, 3.22, 3.22, 3.48, 4.4, 7.6, 7.6, 7.6, 7.6, 7.6, 7.15, 7.6, -0.0, -5.69, -8.4, -8.49, -8.4, -2.06, 0.0, 1.07, 2.04, 1.2, 0.0, 1.4, 1.2, 0.0, 0.0, -1.33, -0.94, -0.89, -0.89, -1.0, -1.0, -0.89, -1.73, -2.54, -6.79, -6.79, -6.79, -6.79, -10.23, -10.23, -10.3, -10.3, -10.01, -10.01, -10.3, -10.65, -10.36, -10.4, -10.4, -10.72, -10.72, -10.72, -10.72, -10.72, -10.72, -10.72, -10.43, -10.13, -9.84, -9.84, -9.79, -9.49, -9.49, -9.84, -9.5, -9.8, -9.48, -9.17, -8.85, -8.24, -7.9, -7.33, -6.97, -6.97, -6.97, -6.98, -6.63, -6.63, -6.27, -5.85, -5.39, -5.18, -4.8, -4.3, -3.51, -2.83, -2.06, -1.14, 0.0, 0.0, 0.0, 1.84, 3.4, 3.4, 4.29, 4.02, 3.76, 3.49, 3.22, 3.22, 3.48, 5.37, 7.6, 7.6, 8.05, 8.05, 7.15, 7.6, -0.0, -6.01, -8.48, -9.39, -8.72, -6.98, -3.52, 0.0, 1.7, 4.64, 6.96, 7.44, 5.81, 2.28, 0.0, -4.23, -3.35, -2.64, -2.2, -2.51, -1.73, -2.26, -2.51, -4.6, -7.15, -8.0, -8.0, -8.0, -9.94, -9.94, -10.51, -10.23, -10.35, -10.35, -10.39, -10.39, -10.42, -10.69, -10.4, -10.72, -10.72, -10.72, -10.72, -10.72, -10.72, -10.72, -10.43, -9.82, -9.82, -9.84, -9.5, -9.49, -9.49, -9.49, -9.5, -9.5, -9.48, -8.87, -9.17, -8.54, -7.95, -7.61, -6.96, -6.7, -6.97, -6.98, -6.61, -6.63, -6.27, -6.27, -5.85, -5.7, -5.18, -3.95, -3.11, -2.47, -1.75, -0.94, -1.0, 0.0, 0.0, 0.0, 1.49, 2.82, 2.66, 3.45, 3.22, 3.22, 3.49, 3.22, 3.22, 3.79, 8.05, 8.05, 8.05, 7.15, 7.6, 5.37, -0.0, -6.01, -8.94, -9.11, -8.43, -7.33, -4.2, -1.09, 0.86, 5.43, 10.76, 11.94, 9.12, 4.93, 1.53, -3.53, -6.64, -5.44, -4.68, -3.33, -4.21, -2.8, -3.55, -5.31, -7.6, -8.24, -8.24, -8.24, -9.94, -9.94, -10.51, -10.23, -10.23, -10.3, -10.06, -10.39, -10.42, -10.42, -10.69, -10.4, -10.99, -10.99, -10.72, -10.72, -10.72, -10.43, -10.43, -9.82, -9.82, -9.5, -9.5, -9.22, -9.49, -9.49, -9.5, -9.5, -8.87, -8.87, -9.17, -8.24, -8.24, -7.61, -7.33, -6.96, -6.97, -6.97, -6.61, -6.63, -5.98, -6.27, -5.85, -5.7, -5.18, -4.6, -3.78, -3.21, -2.57, -2.57, -1.84, -1.0, 0.0, 0.0, 0.0, 1.18, 2.26, 2.26, 2.12, 2.32, 2.99, 3.49, 3.22, 3.79, 4.84, 8.49, 8.05, 7.15, 5.06, 3.4, -0.0, -0.0, -8.94, -9.39, -8.91, -6.64, -4.2, -1.45, 2.23, 7.06, 10.92, 10.84, 8.18, 5.65, 5.33, 1.58, -5.29, -7.9, -7.47, -6.64, -4.29, -2.73, -3.91, -5.06, -7.6, -6.32, -6.32, -6.32, -9.94, -9.94, -10.3, -10.23, -10.59, -10.3, -10.3, -10.65, -10.09, -10.42, -10.42, -10.69, -10.99, -10.99, -10.99, -10.99, -10.72, -10.43, -10.43, -9.82, -9.5, -9.5, -9.5, -9.5, -9.49, -9.49, -9.5, -9.5, -9.17, -9.17, -8.87, -8.54, -8.54, -7.6, -7.33, -6.96, -6.96, -6.58, -6.61, -6.63, -5.98, -6.27, -5.85, -5.46, -4.96, -4.4, -4.4, -3.88, -3.06, -2.57, -2.69, -1.75, -1.0, 0.0, 0.0, 1.01, 1.01, 1.01, 1.84, 2.12, 1.98, 2.16, 2.4, 2.4, 3.79, 6.01, 5.37, 0.0, 0.0, -0.0, -0.0, -0.0, -0.0, -4.0, -0.0, 0.0, 0.0, 1.62, 5.46, 8.54, 8.58, 7.21, 7.15, 7.61, 7.57, 5.36, 0.0, -6.95, -7.44, -4.29, -2.73, -1.55, -2.98, -4.43, -6.71, -6.71, -6.71, -6.71, -9.94, -9.94, -10.3, -10.01, -10.23, -10.59, -10.65, -10.36, -10.36, -10.36, -10.42, -10.42, -10.4, -10.99, -10.99, -10.99, -10.72, -10.72, -10.13, -9.82, -9.82, -9.5, -9.21, -9.5, -9.22, -9.49, -9.5, -8.86, -8.87, -8.87, -8.83, -8.54, -8.54, -7.6, -7.6, -6.96, -6.96, -6.58, -6.61, -6.34, -5.98, -6.27, -5.6, -5.46, -5.46, -4.96, -4.2, -3.88, -3.06, -3.32, -2.44, -2.69, -1.75, -1.0, 0.0, 0.0, 0.0, 0.83, 0.95, 0.89, 1.03, 0.96, 1.05, 2.2, 2.73, 5.69, 5.37, 5.37, 0.0, -0.0, -0.0, -0.0, -0.0, -0.0, -0.0, 0.0, 6.64, 6.64, 8.4, 7.81, 6.95, 5.57, 8.21, 10.38, 9.67, 6.2, 3.45, -1.23, -4.43, -1.7, 0.0, 0.0, 0.0, -2.8, -6.36, -7.15, -7.15, -7.15, -9.94, -9.94, -10.3, -10.01, -10.01, -10.59, -10.3, -10.65, -10.36, -10.69, -10.4, -10.69, -10.69, -10.99, -10.99, -10.99, -10.72, -10.72, -10.13, -9.82, -9.82, -9.82, -9.21, -9.84, -9.5, -9.22, -9.5, -8.86, -8.87, -8.87, -8.53, -8.53, -8.24, -7.6, -7.6, -6.96, -6.56, -6.58, -6.16, -6.2, -6.24, -5.98, -5.85, -5.6, -5.46, -4.96, -4.2, -3.61, -3.88, -3.32, -2.44, -2.69, -1.84, -0.89, 0.0, 0.0, 0.0, 0.0, 0.0, 0.89, 0.89, 0.96, 0.88, 0.96, 1.55, 4.74, 4.74, 6.4, 5.37, 0.0, 0.0, -0.0, -0.0, -0.0, -0.0, 0.0, 8.94, 8.94, 8.3, 6.98, 4.96, 6.01, 7.72, 9.34, 8.2, 5.73, 1.05, -4.92, -4.92, 0.0, 0.0, 0.0, 0.0, -4.11, -6.26, -5.58, -5.58, -5.58, -9.94, -9.94, -10.3, -10.01, -10.01, -10.01, -10.3, -10.3, -10.36, -10.69, -10.4, -10.4, -10.4, -10.4, -10.72, -10.72, -10.43, -10.43, -9.82, -9.82, -9.82, -9.82, -10.13, -9.84, -9.84, -9.5, -9.5, -9.5, -8.87, -9.17, -8.53, -8.53, -8.24, -7.6, -7.6, -6.96, -6.84, -6.58, -6.16, -6.2, -5.95, -5.56, -5.85, -5.6, -5.15, -4.73, -4.2, -4.2, -3.88, -3.06, -3.32, -2.44, -1.84, -0.89, 0.0, 0.0, 0.0, 0.0, 0.0, 0.0, 0.0, 0.0, 0.0, 0.0, 0.0, 0.0, 0.0, 6.71, 7.15, 7.6, 0.0, 0.0, 0.0, -0.0, -0.0, -0.0, 6.01, 8.49, 8.49, 6.01, 5.31, 6.01, 6.32, 4.99, 4.21, 1.23, 0.0, -4.47, -3.58, -5.36, -2.8, 0.0, 0.0, -4.8, -4.84, -3.49, -3.49, -3.49, -9.94, -9.71, -9.94, -10.01, -10.01, -10.01, -10.01, -10.06, -10.3, -10.36, -10.69, -10.69, -10.09, -9.8, -10.4, -10.72, -10.43, -10.43, -9.82, -9.82, -9.82, -9.82, -10.13, -9.84, -9.5, -9.5, -9.5, -9.5, -8.87, -9.17, -8.53, -8.53, -8.24, -7.87, -7.22, -6.96, -6.84, -6.16, -5.92, -5.75, -5.52, -5.52, -5.56, -5.15, -5.15, -4.45, -4.73, -4.2, -3.61, -3.7, -3.06, -2.44, -2.44, -0.94, -0.89, 0.0, 0.0, 0.0, 0.0, 0.0, 0.0, 0.0, 0.0, 0.0, 0.0, 0.0, 0.0, 6.26, 6.26, 6.71, 0.0, 0.0, 6.32, 8.94, -0.0, -0.0, -0.0, 6.01, 8.49, 7.6, 6.01, 6.01, 5.03, 2.46, 0.0, 0.0, -1.07, -2.53, -4.15, -3.83, -5.81, -3.4, -6.26, -2.73, -2.95, -2.76, -2.76, -2.76, -9.71, -9.71, -9.71, -10.3, -10.01, -10.01, -10.01, -10.06, -10.3, -10.36, -10.36, -9.77, -9.77, -10.09, -9.8, -10.4, -10.43, -10.43, -9.82, -9.82, -9.82, -9.82, -9.84, -9.5, -9.5, -9.5, -9.5, -9.5, -9.17, -8.87, -8.53, -8.24, -7.87, -7.87, -7.22, -6.96, -6.84, -6.16, -5.92, -5.75, -5.52, -5.05, -5.1, -4.88, -4.88, -4.45, -4.45, -3.93, -3.61, -3.61, -3.06, -2.35, -2.44, -1.84, -0.89, -0.89, 0.0, 0.0, 0.0, 0.0, 0.0, 0.0, 0.0, 0.0, 0.0, 0.0, 0.0, 0.0, 0.0, 0.0, -0.0, -7.6, -5.69, 0.0, -0.0, -0.0, -0.0, 6.01, 8.49, 8.49, 3.8, 4.71, 2.99, 0.0, 0.0, 0.0, -1.45, -4.4, -3.47, -3.83, -4.57, -7.15, -6.0, -2.95, -2.79, -3.07, -3.07, -3.07, -9.71, -9.71, -9.71, -9.71, -10.01, -10.01, -10.01, -10.06, -10.3, -10.06, -9.77, -9.77, -9.77, -10.09, -10.09, -9.8, -10.4, -9.82, -9.82, -9.82, -9.82, -9.82, -9.5, -9.5, -9.5, -9.21, -9.5, -9.5, -9.5, -8.87, -8.87, -8.24, -8.24, -7.6, -7.22, -6.96, -6.56, -6.16, -5.92, -5.48, -5.52, -5.05, -4.84, -4.88, -4.4, -4.2, -4.45, -3.75, -3.93, -3.61, -2.83, -3.06, -1.67, -1.67, -0.85, -0.8, -0.84, -0.84, 0.0, 0.0, 0.0, 0.0, 0.0, 0.0, 0.0, -1.23, -1.84, 0.0, 0.0, 0.0, 0.0, -8.05, -7.6, -7.15, 0.0, -0.0, -0.0, 0.0, 0.0, 0.0, 0.0, 3.6, 1.2, 2.28, 2.57, 1.72, 0.0, -6.94, -3.6, -2.41, -3.58, -6.94, -7.37, -4.29, -3.48, -3.79, -3.79, -3.79, -9.71, -9.71, -9.71, -9.71, -9.42, -10.01, -10.01, -9.72, -10.06, -9.72, -9.46, -9.48, -10.09, -10.09, -9.8, -10.12, -10.12, -10.12, -9.82, -9.82, -9.82, -9.82, -9.5, -9.21, -9.21, -9.21, -9.5, -9.21, -9.5, -8.87, -8.87, -8.58, -8.24, -7.6, -7.6, -6.96, -6.56, -5.89, -5.67, -5.48, -5.26, -4.84, -4.84, -4.16, -4.4, -4.2, -4.2, -3.7, -3.75, -3.37, -3.44, -2.83, -2.23, -1.67, -1.67, -0.8, -0.8, -0.76, -0.84, -0.79, -0.74, -0.83, -0.89, -0.89, -1.1, -1.32, -1.63, 0.0, 0.0, 0.0, 0.0, 0.0, -8.05, -8.05, -5.37, -5.37, -7.2, -8.05, -8.49, -8.05, -8.05, -5.69, 1.1, 3.07, 3.56, 9.3, -0.0, -3.22, -2.41, -2.07, -4.11, -7.89, -8.05, -5.6, -4.98, -4.22, -4.22, -4.22, -9.71, -9.71, -9.71, -9.71, -9.42, -9.66, -10.01, -9.72, -9.72, -9.46, -9.78, -9.77, -10.09, -9.8, -10.12, -10.12, -10.12, -10.12, -10.12, -9.82, -9.5, -9.5, -9.5, -9.21, -9.21, -9.21, -9.5, -9.21, -9.5, -8.87, -8.87, -8.87, -7.96, -7.96, -7.6, -6.96, -6.96, -6.31, -5.67, -5.67, -5.26, -5.04, -4.63, -4.63, -4.16, -3.97, -4.2, -3.7, -3.7, -3.37, -3.37, -2.83, -2.35, -2.23, -1.67, -1.58, -1.58, -0.76, -0.84, -0.79, -0.79, -0.89, -0.83, -0.95, -1.1, -1.1, -1.32, 0.0, 0.0, 0.0, 0.0, 0.0, -8.49, -8.49, -6.01, -0.0, -8.49, -8.49, -8.94, -8.49, -8.05, -5.37, 0.0, 3.15, 4.8, 8.8, 3.2, -1.08, -1.16, -2.23, -3.79, -6.13, -8.05, -6.71, -5.26, -5.4, -5.4, -5.4, -9.46, -9.46, -9.71, -9.71, -9.76, -9.76, -9.76, -9.76, -9.78, -9.78, -9.48, -10.09, -10.09, -9.8, -10.12, -9.8, -9.8, -9.8, -9.5, -9.21, -9.5, -9.5, -9.5, -9.21, -9.21, -9.21, -9.5, -9.21, -8.87, -8.87, -8.87, -8.56, -8.24, -8.24, -7.61, -7.61, -6.96, -6.7, -6.31, -5.67, -5.67, -5.26, -5.04, -4.6, -4.63, -4.16, -3.97, -4.2, -3.7, -3.7, -3.21, -2.83, -3.06, -2.23, -2.23, -2.44, -1.58, -1.58, -1.49, -1.65, -1.55, -1.73, -1.73, -1.96, -2.26, -2.26, -1.4, -1.73, 0.0, 0.0, 0.0, -7.6, -7.6, -5.37, -3.4, 0.0, -8.05, -8.94, -8.94, -8.49, -8.05, -7.37, -5.37, 0.0, 0.0, 0.0, 0.0, 1.55, -1.19, -3.35, -3.72, -5.84, -7.06, -7.01, -7.15, -7.45, -7.45, -7.45, -9.46, -9.46, -9.71, -9.71, -10.06, -9.76, -9.76, -10.09, -9.78, -9.78, -9.48, -10.09, -10.09, -9.8, -9.8, -9.8, -9.8, -9.5, -9.5, -9.21, -9.21, -9.21, -9.21, -8.86, -9.21, -9.21, -9.21, -8.87, -8.87, -8.58, -8.87, -8.56, -8.24, -7.95, -7.61, -7.33, -6.97, -6.97, -6.58, -6.33, -5.92, -5.69, -5.26, -5.04, -4.6, -4.63, -4.63, -3.97, -4.2, -3.7, -3.52, -3.44, -2.83, -3.06, -2.9, -2.44, -2.31, -2.31, -1.58, -1.65, -1.55, -1.73, -1.73, -1.96, -2.26, -2.26, -2.66, -1.73, -3.2, -7.15, -7.15, -7.15, -7.15, -5.06, -6.8, -7.6, -8.05, -8.05, -8.49, -8.33, -8.05, -8.05, -8.24, -3.97, -1.75, -2.02, -6.95, -0.0, -0.0, -3.76, -4.11, -5.82, -7.54, -7.97, -8.38, -8.49, -8.49, -8.49, -9.46, -9.46, -9.46, -9.46, -9.8, -9.8, -9.48, -9.8, -9.78, -9.78, -9.48, -9.77, -10.09, -10.09, -9.8, -9.8, -9.5, -9.5, -9.5, -9.21, -9.21, -9.21, -8.87, -8.87, -8.59, -8.87, -8.87, -8.87, -8.87, -8.58, -8.87, -8.24, -7.95, -7.95, -7.33, -7.33, -6.97, -6.97, -6.71, -6.33, -6.33, -5.69, -5.69, -5.26, -5.04, -5.04, -4.63, -4.63, -3.97, -4.2, -3.7, -3.21, -3.44, -3.44, -2.9, -2.9, -2.99, -2.31, -2.31, -2.18, -2.4, -2.67, -2.51, -2.82, -3.2, -3.2, -2.66, -3.4, -4.22, -5.06, -6.26, -7.6, 0.0, 0.0, -7.15, -7.6, -7.63, -7.2, -7.2, -8.24, -8.24, -8.49, -7.89, -5.69, -3.49, -1.84, -5.0, -9.39, -6.01, -5.69, -6.52, -7.81, -8.87, -8.94, -8.82, -8.33, -8.33, -8.33, -9.46, -9.46, -9.46, -9.46, -9.46, -9.8, -9.48, -9.48, -9.78, -9.78, -9.77, -9.77, -10.09, -9.77, -9.48, -9.19, -9.19, -9.19, -9.5, -9.21, -9.21, -8.87, -8.87, -8.87, -8.59, -8.87, -8.87, -8.59, -8.87, -8.58, -8.87, -8.24, -7.95, -7.95, -7.33, -7.33, -6.97, -6.71, -6.71, -6.33, -6.34, -6.34, -5.95, -5.7, -5.29, -5.29, -5.29, -4.63, -4.42, -4.2, -4.2, -3.75, -4.0, -3.44, -3.51, -3.51, -2.9, -2.99, -2.99, -2.31, -2.4, -2.4, -2.67, -2.99, -2.99, -3.4, -3.91, -4.56, -5.69, -5.37, -4.74, -7.6, 0.0, 0.0, 0.0, -6.8, -6.32, -3.6, -5.69, -7.63, -8.24, -8.49, -8.06, -6.28, -4.6, -3.53, -3.68, -4.8, -8.8, -9.83, -8.67, -8.06, -8.6, -8.49, -8.49, -8.33, -8.33, -8.33, -9.46, -9.46, -9.8, -9.8, -9.8, -9.8, -9.48, -9.48, -9.46, -9.78, -10.06, -9.77, -9.77, -9.48, -9.48, -9.19, -9.19, -9.19, -9.19, -9.5, -9.21, -8.87, -8.87, -8.87, -8.87, -8.87, -8.87, -8.59, -8.87, -8.58, -8.87, -8.24, -7.95, -7.95, -7.33, -7.61, -7.26, -6.98, -6.98, -6.34, -6.34, -6.34, -5.95, -5.95, -5.7, -5.29, -5.06, -5.06, -4.63, -4.66, -4.45, -4.45, -4.0, -4.0, -4.28, -3.51, -3.51, -3.51, -3.6, -2.99, -3.27, -3.09, -3.4, -3.77, -3.77, -4.22, -4.75, -5.69, -5.69, -5.37, -4.74, -4.11, 0.0, 0.0, 0.0, -5.06, -3.97, -3.4, -3.4, -7.21, -8.05, -7.94, -7.63, -6.7, -5.31, -3.25, -3.39, -3.25, -3.65, -6.64, -9.11, -8.49, -8.33, -8.49, -8.33, -7.6, -7.6, -7.6, -9.46, -9.46, -9.8, -9.8, -9.8, -9.8, -9.48, -9.48, -9.46, -9.78, -10.06, -9.77, -9.77, -9.48, -9.48, -9.19, -9.19, -9.19, -9.19, -9.5, -9.21, -8.87, -8.87, -8.87, -8.87, -8.87, -8.87, -8.59, -8.87, -8.58, -8.87, -8.24, -7.95, -7.95, -7.33, -7.61, -7.26, -6.98, -6.98, -6.34, -6.34, -6.34, -5.95, -5.95, -5.7, -5.29, -5.06, -5.06, -4.63, -4.66, -4.45, -4.45, -4.0, -4.0, -4.28, -3.51, -3.51, -3.51, -3.6, -2.99, -3.27, -3.09, -3.4, -3.77, -3.77, -4.22, -4.75, -5.69, -5.69, -5.37, -4.74, -4.11, 0.0, 0.0, 0.0, -5.06, -2.4, -3.4, -3.4, -7.21, -8.05, -7.94, -7.63, -6.7, -5.69, -4.0, -2.58, -1.39, -1.39, -1.39, -1.62, -3.49, -3.8, -3.8, -3.8, -3.15, -3.15, -3.15]}]